     2              OBSERVATION DATA    GPS                 RINEX VERSION / TYPE
ASRINEXO V2.4.4 UX USGS 28-MAY-96 09:19                     PGM / RUN BY / DATE
                                                            COMMENT
Contact: kwendt@isdmnl.wr.usgs.gov (Ph: 415-329-4866)       COMMENT
Contact: kwendt@isdmnl.wr.usgs.gov (Ph: 415-329-4866)       COMMENT
Contact: kwendt@isdmnl.wr.usgs.gov (Ph: 415-329-4866)       COMMENT
Contact: kwendt@isdmnl.wr.usgs.gov (Ph: 415-329-4866)       COMMENT
Original Marker Name: mnmt Mine_Mt_1962_DWR                 COMMENT
Campaign Name: USGS Parkfield                               COMMENT
4-Character Station Name: MNMT                              COMMENT
6-Character Antenna Code: ASHP12                            COMMENT
Vertical Measurement Point: EGP                             COMMENT
Vertical Offset to Rinex Ref. Point: 0.0593                 COMMENT
Radial Measurement Point: EGP                               COMMENT
Radial Offset to Rinex Ref. Point: 0.1425                   COMMENT
Antenna Height from Field Measurement: 1.2530 m             COMMENT
Additional Antenna Identification Info.:                    COMMENT
Ashtech L1/L2 Revision B (700228DE)                         COMMENT
Original XYZ: -2621433.4400 -4460582.0600 3718150.7800      COMMENT
New XYZ position is based on association with SCEC monument COMMENT
E1F1N4M3+0011. Position of that monument is believed to be  COMMENT
valid to within 1 m horizontally; vertical accuracy         COMMENT
should be no worse than 3-times this value.                 COMMENT
                                                            COMMENT
Revised Rinex header created by UCSD GPS archive for        COMMENT
GSAC on 11-Jul-2000 (2000:193) 17:37:14 GMT                 COMMENT
For assistance contact dagnew@ucsd.edu                      COMMENT
or anderson@python.ucsd.edu                                 COMMENT
                                                            COMMENT
MINE MT 1962                                                MARKER NAME
CHS US GEOLOGICAL SURVEY                                    OBSERVER / AGENCY
582 ASHTECH Z-XII3 1F00                                     REC # / TYPE / VERS
068 ASHTECH GEODETIC P                                      ANT # / TYPE
 -2618331.9026 -4456618.8137  3726072.0447                  APPROX POSITION XYZ
        1.1856        0.0000        0.0000                  ANTENNA: DELTA H/E/N
     1     1     0                                          WAVELENGTH FACT L1/2
     5    C1    L1    L2    P1    P2                        # / TYPES OF OBSERV
    30                                                      INTERVAL
  1996     5    20    21    53   30.000000                  TIME OF FIRST OBS
  1996     5    20    23    59   60.000000                  TIME OF LAST OBS
                                                            END OF HEADER
 96  5 20 21 53 30.0000000  0  7 24 20  4  5 16  9  6
  15668842.742        4473.94119      2607.74259                  15668848.6044
  15160295.183      -71417.30419
  18188083.318       42115.34919     22444.81859                  18188094.6474
  14564916.018      -33845.43319    -19227.12059                  14564919.2624
  16492085.390      -79121.72719    -47742.55659                  16492093.6504
  18689453.609       20134.06819
  16950899.441      -71490.85119    -44002.65459                  16950909.0384
 96  5 20 21 54  0.0000000  0  7 24 20  4  5 16  9  6
  15670086.559       11005.06859      7696.92749  15670087.6194   15670092.5304
  15140391.067     -176006.991 9
  18196221.384       84870.47459     55760.44849  18196225.6764   18196231.2474
  14557766.656      -71385.05759    -48478.78749  14557771.5384   14557776.5144
  16467561.002     -207987.80559   -148157.65549  16467564.8854   16467570.8474
  18697058.682       60110.013 9
  16928255.893     -190506.74159   -136742.29449  16928254.8584   16928261.7234
 96  5 20 21 54 30.0000000  0  7 24 20  4  5 16  9  6
  21667062.517       16926.03949     12310.67549  21667063.7774   21667067.8674
  21116274.987     -280936.695 9
  24200043.661      126754.46749     88397.31249  24200045.4994   24200052.3554
  20546417.582     -109232.89749    -77970.61349  20546418.5344   20546423.3434
  22438810.582     -337280.73249   -248905.34849  22438810.5204   22438816.8284
  24700346.100       99180.82659     70336.02259  24700344.0484   24700351.4514
  22901314.008     -310251.48649   -230049.86149  22901316.3544   22901323.0134
 96  5 20 21 55  0.0000000  0  7 24 20  4  5 16  9  6
  21668082.102       22306.04059     16502.87959  21668087.6364   21668091.2984
  21096223.556     -386295.033 9
  24207865.687      167863.12759    120429.97859  24207867.8434   24207873.0794
  20539159.452     -147382.10659   -107697.28359  20539158.8224   20539163.8134
  22414105.126     -467096.21159   -350060.21259  22414106.5424   22414114.0764
  24707625.020      137440.39159    100148.59259  24707624.3124   24707631.7554
  22878371.598     -430827.56359   -324005.22459  22878373.2534   22878378.6944
 96  5 20 21 55 30.0000000  0  7 24 20  4  5 16  9  6
  21669020.216       27209.92149     20324.07949  21669021.2244   21669025.1484
  21076118.223     -491969.227 9
  24215538.461      208232.51249    151886.62849  24215548.8234   24215555.6224
  20531856.295     -185759.30549   -137601.59049  20531856.1794   20531861.1524
  22389329.700     -597280.04449   -451502.11749  22389333.8394   22389341.8964
  24714750.717      174912.43149    129347.50549  24714754.3754   24714762.6734
  22855300.833     -552081.89549   -418489.09849  22855300.6374   22855304.7254
 96  5 20 21 56  0.0000000  0  7 24 20  4  5 16  9  6
  21669864.565       31654.58249     23787.46149  21669866.5154   21669871.1804
  21055950.003     -597953.103 9
  24223078.240      247871.08449    182773.81649  24223091.6794   24223098.9254
  20524509.725     -224358.46249   -167678.84349  20524510.8064   20524516.3234
  22364489.419     -727826.64449   -553226.71649  22364491.3374   22364499.6744
  24721732.594      211588.98249    157926.56649  24721734.5014   24721741.9304
  22832096.847     -674000.53149   -513490.58849  22832099.2094   22832104.3194
 96  5 20 21 56 30.0000000  0  7 24 20  4  5 16  9  6
  21670637.301       35711.60749     26948.77649  21670637.9774   21670643.1144
  21035737.120     -704167.611 9
  24230511.728      286849.38049    213146.49749  24230509.8324   24230515.9684
  20517135.871     -263105.34149   -197871.21849  20517137.9004   20517143.1564
  22339597.308     -858669.91249   -655182.45849  22339592.9854   22339600.1004
  24728572.428      247513.39959    185919.53559  24728570.0314   24728578.8564
  22808784.167     -796517.40149   -608958.24549  22808785.4034   22808789.9264
 96  5 20 21 57  0.0000000  0  7 24 20  4  5 16  9  6
  21671336.718       39399.63949     29822.55549  21671339.3544   21671344.8724
  21015486.372     -810582.662 9
  24237806.648      325201.86349    243031.52349  24237808.9974   24237813.7194
  20509737.809     -301983.77749   -228166.11149  20509739.4864   20509744.2164
  22314641.892     -989779.64249   -757345.81849  22314643.3314   22314650.1954
  24735267.547      282701.00849    213338.35949  24735266.8144   24735274.7704
  22785361.670     -919611.47849   -704875.65449  22785361.6574   22785365.5314
 96  5 20 21 57 30.0000000  0  7 24 20  4  5 16  9  6
  21671973.369       42734.40649     32421.04849  21671974.6144   21671979.9214
  20995209.875     -917152.470 9
  24244992.668      362971.58449    272462.46149  24244996.0174   24245001.9694
  20502321.926     -340962.15849   -258538.88949  20502321.9304   20502326.3334
  22289646.933    -1121129.46649   -859696.26849  22289647.5724   22289653.4474
  24741827.195      317188.79649    240211.87149  24741828.4464   24741837.0844
  22761832.422    -1043253.80949   -801220.28949  22761832.3114   22761836.6264
 96  5 20 21 58  0.0000000  0  7 24 20  4  5 16  9  6
  21672546.874       45736.36949     34760.23249  21672546.0354   21672551.8924
  20974909.434    -1023823.461 9    -20236.75159                  20974915.5444
  24252079.505      400196.16049    301468.60749  24252080.1594   24252086.5154
  20494892.715     -379988.16649   -288948.77049  20494895.1554   20494900.2664
  22264615.776    -1252675.37349   -962199.52949  22264615.9574   22264621.9274
  24748263.599      351024.18649    266577.01749  24748266.6414   24748274.5814
  22738203.526    -1167420.03549   -897973.14949  22738204.4084   22738208.7074
 96  5 20 21 58 30.0000000  0  7 24 20  4  5 16  9  6
  21673056.495       48412.00049     36845.13249  21673055.2434   21673060.5134
  20954595.266    -1130576.37959   -103420.83259  20954595.5984   20954600.9244
  24259061.059      436883.48249    330056.10149  24259060.7534   24259067.2374
  20487458.624     -419060.19749   -319394.51249  20487459.9804   20487465.1884
  22239546.382    -1384398.60449  -1064840.95849  22239549.8634   22239556.7294
  24754588.333      384228.89849    292450.74749  24754586.7484   24754594.1044
  22714473.066    -1292109.03249   -995133.37349  22714475.7934   22714481.7454
 96  5 20 21 59  0.0000000  0  7 24 20  4  5 16  9  6
  21673503.859       50793.61149     38700.93749  21673508.3944   21673513.5104
  20934270.635    -1237380.97249   -186645.17749  20934271.5844   20934276.8084
  24265949.341      473076.76549    358258.61549  24265948.0984   24265955.2564
  20480021.021     -458153.49249   -349856.84149  20480020.6434   20480026.2964
  22214457.331    -1516270.74549  -1167598.42149  22214455.5684   22214462.7374
  24760798.633      416840.71649    317862.43349  24760792.8354   24760799.6594
  22690655.027    -1417289.73849  -1092676.74549  22690655.9684   22690661.4414
 96  5 20 21 59 30.0000000  0  7 24 20  4  5 16  9  6
  21673911.073       52916.11249     40354.82949  21673912.1414   21673918.1984
  20913941.045    -1344212.94749   -269890.86149  20913941.7524   20913946.8604
  24272745.342      508804.00649    386097.96449  24272746.8314   24272753.5064
  20472583.333     -497226.06749   -380303.00149  20472585.8814   20472590.7494
  22189335.653    -1648270.35049  -1270455.22449  22189336.6664   22189344.1814
  24766885.743      448892.93249    342838.09749  24766890.7524   24766898.6624
  22666748.563    -1542927.31749  -1190576.12649  22666747.9804   22666753.4824
 96  5 20 22  0  0.0000000  0  7 24 20  4  5 16  9  6
  21674274.059       54828.91649     41845.32349  21674277.0364   21674281.5424
  20893615.951    -1451033.57649   -353127.71749  20893614.9514   20893619.5474
  24279461.321      544100.12849    413601.39549  24279463.8834   24279470.2184
  20465160.049     -536245.23049   -410707.54149  20465160.9014   20465165.3454
  22164200.169    -1780364.01449  -1373385.29549  22164201.4554   22164208.2424
  24772885.390      480416.75549    367402.03749  24772888.3344   24772897.8804
  22642760.786    -1668978.86349  -1288798.07549  22642760.6274   22642765.7114
 96  5 20 22  0 30.0000000  0  7 24 20  4  5 16  9  6
  21674605.560       56573.54949     43204.78149  21674609.3094   21674613.2694
  20873295.014    -1557805.72149   -436326.78249  20873296.2224   20873301.4154
  24286102.546      578990.88849    440788.96549  24286102.9224   24286110.0424
  20457750.015     -575182.16549   -441048.01549  20457751.8454   20457756.4504
  22139053.303    -1912518.44649  -1476362.75249  22139053.7894   22139059.2534
  24778773.505      511428.47549    391566.90059  24778785.9704   24778799.0424
  22618700.753    -1795398.91149  -1387307.16749  22618703.6564   22618708.7784
 96  5 20 22  1  0.0000000  0  7 24 20  4  5 16  9  6
  21674910.187       58155.32149     44437.33849  21674910.3704   21674914.9454
  20852992.226    -1664505.09149   -519469.14149  20852992.2224   20852997.6674
  24292668.983      613489.89549    467671.26949  24292668.1824   24292674.0634
  20450363.853     -614007.67749   -471301.67449  20450364.2204   20450368.1514
  22113895.863    -2044715.26449  -1579373.20949  22113896.7624   22113904.0384
  24784547.668      541932.50059    415336.23259  24784588.9574   24784602.6664
  22594581.941    -1922153.16649  -1486076.68449  22594583.5024   22594587.4824
 96  5 20 22  1 30.0000000  0  7 24 20  4  5 16  9  6
  21675193.455       59650.41149     45602.35349  21675194.5904   21675199.5934
  20832719.521    -1771042.86649   -602485.59649  20832719.3594   20832724.4244
  24299166.262      647665.99349    494301.93949  24299172.9064   24299178.1384
  20443012.796     -652635.16849   -501401.01949  20443013.2924   20443017.2324
  22088750.322    -2176862.99049  -1682345.42849  22088749.7664   22088756.5814
  24790301.814      572017.76759    438779.29559  24790316.0534   24790327.9794
  22570414.198    -2049163.07349  -1585045.38849  22570414.6894   22570418.4544
 96  5 20 22  2  0.0000000  0  7 24 20  4  5 16  9  6
  21675470.363       61109.15649     46739.02449  21675471.0144   21675477.1154
  20812485.074    -1877361.92149   -685331.59549  20812486.7644   20812492.8964
  24305618.434      681555.34549    520709.17349  24305621.6014   24305625.9334
  20435706.527     -691024.08649   -531314.46149  20435707.9714   20435712.6084
  22063623.979    -2308906.81949  -1785236.69449  22063623.0254   22063629.3094
  24795974.856      601728.92159    461930.76459  24795974.5184   24795984.3354
  22546203.331    -2176384.84749  -1684179.19049  22546205.6324   22546208.6884
 96  5 20 22  2 30.0000000  0  7 24 20  4  5 16  9  6
  21675743.406       62552.54049     47863.73249  21675746.1944   21675751.8304
  20792301.586    -1983432.81749   -767984.22849  20792302.7734   20792308.1514
  24312019.391      715195.58049    546922.27249  24312022.4014   24312027.5504
  20428455.032     -729129.85549   -561007.27049  20428456.4584   20428461.4954
  22038524.427    -2440794.91349  -1888006.60449  22038524.9964   22038531.2484
  24801567.224      631106.62549    484822.39049  24801563.8154   24801575.7914
  22521963.759    -2303775.56249  -1783444.64449  22521963.6684   22521969.4274
 96  5 20 22  3  0.0000000  0  7 24 20  4  5 16  9  6
  21676012.786       63985.81849     48980.55249  21676018.7374   21676024.0984
  20772167.717    -2089242.47149   -850433.30449  20772166.9894   20772172.9574
  24318385.416      748616.54049    572964.50549  24318382.2554   24318387.0294
  20421262.229     -766934.91149   -590465.76349  20421261.7994   20421267.1774
  22013460.584    -2572509.62949  -1990641.40449  22013461.1754   22013466.0414
  24807103.439      660170.22549    507469.24449  24807099.9884   24807104.8684
  22497692.555    -2431318.48949  -1882828.73649  22497692.7364   22497698.5014
 96  5 20 22  3 30.0000000  0  7 24 20  4  5 16  9  6
  21676296.265       65444.42549     50117.12649  21676296.9334   21676300.5424
  20752083.745    -2194775.96549   -932667.17549  20752085.2294   20752090.7854
  24324701.885      781844.36049    598856.26249  24324705.1764   24324710.1914
  20414128.052     -804419.93849   -619674.88049  20414129.1364   20414133.9864
  21988435.421    -2704027.31149  -2093122.65449  21988434.4714   21988438.4404
  24812577.248      688945.02749    529891.07449  24812574.1674   24812578.8394
  22473395.131    -2558996.21749  -1982317.85049  22473395.4584   22473401.6614
 96  5 20 22  4  0.0000000  0  7 24 20  4  5 16  9  6
  21676580.421       66932.99549     51277.03849  21676580.5044   21676584.3204
  20732055.677    -2300026.43449  -1014680.52049  20732056.5604   20732062.4064
  24330993.107      814885.64449    624602.66249  24330992.4284   24330997.4404
  20407057.699     -841575.02449   -648626.91749  20407058.6374   20407063.5404
  21963443.668    -2835338.18449  -2195442.77249  21963446.3724   21963451.5334
  24817987.888      717425.42449    552083.50249  24817995.7624   24817999.2894
  22449076.557    -2686789.82649  -2081897.26749  22449077.8434   22449083.4374
 96  5 20 22  4 30.0000000  0  7 24 20  4  5 16  9  6
  21676866.212       68440.12649     52451.42149  21676866.5844   21676871.0874
  20712081.486    -2404987.92549  -1096468.68749  20712082.4874   20712088.1894
  24337245.464      847741.91449    650204.90549  24337245.0724   24337250.4514
  20400053.518     -878385.12449   -677310.12549  20400053.8054   20400059.1114
  21938499.284    -2966436.09449  -2297596.94749  21938498.9804   21938506.1274
  24823356.261      745608.20449    574044.01549  24823360.1074   24823360.6974
  22424735.724    -2814690.21449  -2181559.89949  22424738.3374   22424745.2304
 96  5 20 22  5  0.0000000  0  7 24 20  4  5 16  9  6
  21677159.749       69981.57749     53652.55949  21677160.1284   21677165.0534
  20692166.719    -2509648.96449  -1178022.74449  20692166.4054   20692171.5424
  24343460.060      880404.82949    675656.46249  24343462.5054   24343466.8604
  20393111.335     -914855.64049   -705728.73049  20393114.0284   20393118.9174
  21913591.784    -3097315.82549  -2399581.12449  21913593.3994   21913600.0674
  24828659.511      773481.79249    595763.62249  24828659.7604   24828663.3884
  22400376.521    -2942708.66149  -2281314.54149  22400378.0414   22400385.3614
 96  5 20 22  5 30.0000000  0  6 24 20  4  5 16  6
  21677461.892       71577.47449     54896.08849  21677463.6474   21677469.4934
  20672312.217    -2613987.48449  -1259325.49049  20672311.6044   20672317.4504
  24349641.939      912869.92449    700953.86049  24349640.7274   24349644.4834
  20386236.910     -950985.79149   -733882.11649  20386238.7714   20386243.8904
  21888733.485    -3227957.51949  -2501379.82249  21888732.9844   21888739.5354
  22375996.230    -3070838.24349  -2381155.78049  22375995.3854   22376001.8314
 96  5 20 22  6  0.0000000  0  6 24 20  4  5 16  6
  21677776.950       73226.38949     56180.93549  21677777.4624   21677783.4614
  20652522.337    -2717980.93549  -1340359.33349  20652522.3314   20652527.9944
  24355779.286      945150.13549    726107.21149  24355782.4144   24355787.1394
  20379428.647     -986769.23849   -761765.33649  20379429.4324   20379434.3634
  21863921.630    -3358341.69449  -2602977.83749  21863921.9984   21863928.9644
  22351592.688    -3199079.05349  -2481083.67849  22351592.8974   22351595.7374
 96  5 20 22  6 30.0000000  0  6 24 20  4  5 16  6
  21678099.938       74936.73549     57513.65849  21678103.2644   21678108.8424
  20632799.517    -2821613.58649  -1421112.04249  20632801.6954   20632807.0274
  24361892.700      977257.10949    751125.57649  24361891.5924   24361896.9174
  20372685.279    -1022204.89949   -789377.56149  20372686.1794   20372691.5344
  21839162.299    -3488450.23849  -2704361.08449  21839162.9844   21839170.2684
  22327167.498    -3327431.23149  -2581098.30249  22327169.5374   22327169.1984
 96  5 20 22  6 59.9990000  0  6 24 20  4  5 16  6
  21678440.290       76729.79649     58910.82949  21678443.8064   21678449.7574
  20613150.876    -2924871.25449  -1501572.56549  20613152.5084   20613158.0434
  24367972.698     1009214.83849    776027.63949  24367973.1154   24367979.7694
  20366007.148    -1057302.85649   -816726.63249  20366007.7284   20366012.5104
  21814459.827    -3618258.62849  -2805510.45949  21814460.7984   21814467.3784
  22302726.442    -3455876.51549  -2681185.46649  22302725.8794   22302728.6854
 96  5 20 22  7 29.9990000  0  6 24 20  4  5 16  6
  21678799.378       78603.74249     60371.01849  21678800.0274   21678806.5984
  20593574.807    -3027754.14249  -1581741.05649  20593575.2574   20593580.0524
  24374026.136     1041044.03249    800829.52049  24374029.4484   24374037.3534
  20359394.880    -1092054.07349   -843805.52249  20359395.2684   20359399.9954
  21789813.465    -3747780.82949  -2906436.82849  21789813.9704   21789820.0514
  22278264.237    -3584411.00749  -2781342.18149  22278265.2134   22278269.7554
 96  5 20 22  7 59.9990000  0  6 24 20  4  5 16  6
  21679171.424       80554.86849     61891.35549  21679172.7014   21679179.1064
  20574065.771    -3130269.21649  -1661622.92849  20574067.0914   20574072.3874
  24380058.581     1072748.52849    825534.23149  24380062.2154   24380069.4314
  20352851.419    -1126440.53549   -870600.18049  20352851.3854   20352856.2334
  21765220.145    -3877015.35249  -3007139.02549  21765221.0064   21765227.6264
  22253791.407    -3713023.85649  -2881559.95949  22253791.8994   22253797.2104
 96  5 20 22  8 29.9990000  0  6 24 20  4  5 16  6
  21679557.086       82582.87249     63471.57549  21679558.9244   21679565.5174
  20554625.213    -3232430.37549  -1741229.01849  20554625.9454   20554631.1204
  24386070.346     1104322.25849    850137.06649  24386070.8864   24386078.1494
  20346376.299    -1160460.43749   -897109.20049  20346377.7594   20346381.9594
  21740678.307    -4005969.01349  -3107622.36249  21740681.8064   21740688.2714
  22229302.865    -3841701.00049  -2981827.83549  22229305.2604   22229310.8244
 96  5 20 22  8 59.9990000  0  6 24 20  4  5 16  6
  21679957.642       84686.46849     65110.71149  21679958.6874   21679963.9294
  20535251.092    -3334245.14549  -1820565.20049  20535251.5124   20535256.3954
  24392050.130     1135762.29349    874635.69649  24392054.3504   24392061.2314
  20339971.909    -1194113.66449   -923332.50849  20339973.6264   20339978.5244
  21716193.155    -4134654.18249  -3207896.49949  21716193.8274   21716199.4534
  22204808.492    -3970434.01749  -3082139.27449  22204808.5414   22204812.6314
 96  5 20 22  9 29.9990000  0  6 24 20  4  5 16  6
  21680370.967       86865.76449     66808.86749  21680373.1454   21680378.8754
  20515942.430    -3435711.34349  -1899629.76949  20515942.7864   20515948.2484
  24398008.277     1167058.31949    899022.13949  24398010.5194   24398016.3924
  20333643.323    -1227375.29649   -949250.68449  20333644.3704   20333648.7454
  21691758.271    -4263072.16049  -3307962.42749  21691756.9784   21691763.9944
  22180298.829    -4099224.56649  -3182495.50449  22180300.5084   22180305.8894
 96  5 20 22  9 59.9990000  0  6 24 20  4  5 16  6
  21680799.797       89111.64949     68558.89049  21680800.4244   21680806.9084
  20496698.824    -3536835.50049  -1978427.81549  20496699.4814   20496704.6224
  24403933.341     1198189.27149    923279.92949  24403935.0474   24403940.1004
  20327386.478    -1260246.53949   -974864.65949  20327388.5434   20327393.6594
  21667370.575    -4391203.57649  -3407805.06449  21667373.8534   21667380.3124
  22155782.266    -4228069.37149  -3282894.05349  22155783.2084   22155787.7954
 96  5 20 22 10 29.9990000  0  6 24 20  4  5 16  6
  21681240.176       91430.69149     70365.90349  21681241.3334   21681248.3034
  20477526.069    -3637593.54549  -2056940.57649  20477526.4584   20477530.8664
  24409829.589     1229160.67649    947413.40449  24409828.6704   24409834.9254
  20321209.101    -1292722.47149  -1000170.58649  20321208.9554   20321213.6834
  21643052.218    -4519023.52449  -3507404.99249  21643050.5144   21643058.5454
  22131257.479    -4356949.63149  -3383320.20049  22131258.4084   22131262.7184
 96  5 20 22 10 59.9990000  0  6 24 20  4  5 16  6
  21681694.057       93833.73449     72238.36949  21681698.6574   21681704.2334
  20458427.122    -3737961.15949  -2135149.09249  20458427.0434   20458432.2914
  24415688.253     1259962.31049    971414.59149  24415690.3464   24415695.6384
  20315103.790    -1324794.83849  -1025162.04249  20315105.8204   20315110.4094
  21618791.864    -4646516.93449  -3606750.48549  21618789.3654   21618796.2744
  22106726.364    -4485864.95749  -3483773.69149  22106726.1164   22106730.2284
 96  5 20 22 11 29.9990000  0  6 24 20  4  5 16  6
  21682168.768       96309.19449     74167.27349  21682170.7864   21682176.1954
  20439404.291    -3837922.00249  -2213040.65249  20439405.7594   20439410.0444
  24421515.612     1290592.44049    995282.17449  24421517.3824   24421523.9074
  20309078.832    -1356456.06749  -1049833.13849  20309080.9754   20309085.6034
  21594595.883    -4773664.87349  -3705826.77949  21594594.8344   21594601.3254
  22082184.074    -4614828.30649  -3584264.58449  22082185.0274   22082189.4514
 96  5 20 22 11 59.9990000  0  6 24 20  4  5 16  6
  21682654.691       98856.80349     76152.38149  21682655.9314   21682660.8374
  20420464.849    -3937450.42449  -2290595.27749  20420465.7944   20420470.4134
  24427314.201     1321059.42549   1019022.63249  24427313.9094   24427323.5064
  20303131.794    -1387710.28349  -1074187.08749  20303133.2594   20303138.3044
  21570466.734    -4900455.52449  -3804624.66649  21570468.8194   21570473.3644
  22057634.826    -4743831.12249  -3684786.23749  22057635.9484   22057641.2414
 96  5 20 22 12 29.9990000  0  6 24 20  4  5 16  6
  21683155.674      101485.37049     78200.59649  21683155.3244   21683160.7894
  20401611.317    -4036528.95349  -2367799.32349  20401611.9334   20401615.5324
  24433086.765     1351380.73049   1042649.54949  24433085.6814   24433092.8944
  20297261.660    -1418561.56049  -1098227.06149  20297262.2424   20297267.4224
  21546405.621    -5026891.01649  -3903145.76649  21546407.0954   21546411.5294
  22033079.755    -4872869.27149  -3785335.42749  22033080.7194   22033085.7784
 96  5 20 22 12 59.9990000  0  6 24 20  4  5 16  6
  21683673.341      104206.99049     80321.30649  21683672.5824   21683678.8184
  20382845.467    -4135142.09249  -2444640.73249  20382846.3834   20382849.9914
  24438837.795     1381582.97049   1066183.71549  24438832.2014   24438838.9554
  20291469.858    -1448998.27149  -1121944.00249  20291470.9894   20291475.6254
  21522418.553    -5152965.84249  -4001385.84349  21522416.9874   21522422.3314
  22008518.439    -5001944.39249  -3885913.42549  22008519.2064   22008522.7164
 96  5 20 22 13 29.9990000  0  6 24 20  4  5 16  6
  21684214.455      107038.14149     82527.35249  21684212.1914   21684217.3254
  20364171.093    -4233277.45849  -2521109.85149  20364171.8174   20364175.8444
  24444568.679     1411718.32449   1089665.76649  24444567.4314   24444574.8814
  20285762.910    -1478990.26349  -1145314.40149  20285763.4464   20285767.9404
  21498499.660    -5278663.68649  -4099332.21249  21498496.9624   21498503.3794
  21983952.831    -5131024.18049  -3986495.06449  21983955.2504   21983960.0864
 96  5 20 22 13 59.9990000  0  6 24 20  4  5 16  6
  21684771.969      109987.12549     84825.25449  21684773.1094   21684778.5474
  20345585.372    -4330945.73449  -2597215.00749  20345586.2384   20345590.0784
  24450287.443     1441782.76949   1113092.59249  24450290.0084   24450293.1674
  20280137.778    -1508543.12249  -1168342.61449  20280139.1764   20280144.2424
  21474642.549    -5403989.36349  -4196988.57849  21474646.5874   21474654.0184
  21959392.879    -5260094.49449  -4087069.31649  21959393.7524   21959399.3624
 96  5 20 22 14 29.9990000  0  6 24 20  4  5 16  6
  21685356.858      113062.61649     87221.70849  21685359.0154   21685363.4584
  20327087.535    -4428148.83249  -2672957.68049  20327088.7664   20327093.1834
  24455997.129     1471782.07049   1136468.61049  24455998.6604   24456001.1134
  20274602.735    -1537641.50749  -1191016.69549  20274602.0784   20274607.4334
  21450868.678    -5528926.01449  -4294341.81449  21450872.5184   21450879.8544
  21934835.122    -5389149.34449  -4187631.53249  21934835.9164   21934840.3534
 96  5 20 22 14 59.9990000  0  6 24 20  4  5 16  6
  21685965.104      116257.36349     89711.10049  21685966.2064   21685971.6744
  20308676.322    -4524896.81149  -2748345.70449  20308678.0504   20308682.9774
  24461691.545     1501703.25149   1159783.80649  24461691.6204   24461697.6314
  20269153.193    -1566273.72449  -1213327.52949  20269153.8374   20269158.5044
  21427171.425    -5653479.99849  -4391396.84549  21427170.2374   21427177.4854
  21910279.254    -5518195.22349  -4288186.75349  21910280.0014   21910284.0014
 96  5 20 22 15 29.9990000  0  6 24 20  4  5 16  6
  21686598.429      119584.07849     92303.32149  21686599.8734   21686604.4504
  20290354.996    -4621183.15749  -2823374.01649  20290355.1264   20290360.5004
  24467367.727     1531538.51349   1183032.03549  24467371.0204   24467374.8714
  20263796.875    -1594431.84949  -1235268.93049  20263796.1054   20263800.5564
  21403548.090    -5777622.90149  -4488131.54149  21403546.7894   21403553.1004
  21885727.857    -5647213.48149  -4388720.45249  21885727.9464   21885732.2554
 96  5 20 22 15 59.9990000  0  6 24 20  4  5 16  6
  21687247.685      122998.98049     94964.25049  21687249.6434   21687254.5154
  20272109.858    -4717052.50049  -2898077.38849  20272111.7094   20272117.1844
  24473017.318     1561215.46349   1206156.89149  24473016.1344   24473022.2504
  20258515.633    -1622168.26549  -1256881.73549  20258517.5244   20258522.7344
  21379993.351    -5901378.80249  -4584564.69749  21379996.4404   21380002.7634
  21861170.000    -5776252.59649  -4489270.40149  21861172.4104   21861176.8804
 96  5 20 22 16 29.9990000  0  6 24 20  4  5 16  6
  21687916.445      126508.01149     97698.53449  21687917.5114   21687922.4024
  20253948.185    -4812496.00749  -2972448.95249  20253949.4524   20253955.2304
  24478637.846     1590747.72849   1229168.99149  24478637.3934   24478641.7624
  20253320.294    -1649469.01549  -1278155.06649  20253322.3424   20253327.0374
  21356522.656    -6024737.34049  -4680688.20249  21356522.6064   21356528.6034
  21836614.639    -5905305.43749  -4589831.02849  21836614.4004   21836619.7734
 96  5 20 22 16 59.9990000  0  6 24 20  4  5 16  6
  21688607.314      130132.29949    100522.64149  21688607.1244   21688612.3574
  20235873.637    -4907486.60949  -3046467.59549  20235873.7144   20235879.0354
  24484229.092     1620162.70549   1252089.72149  24484233.8564   24484239.9394
  20248213.835    -1676321.36249  -1299078.99149  20248212.9444   20248217.5084
  21333129.792    -6147681.61649  -4776488.89749  21333127.9514   21333134.2404
  21812058.552    -6034344.84349  -4690381.20349  21812059.6224   21812064.3244
 96  5 20 22 17 29.9990000  0  7 24 20  4  5 17 16  6
  21689320.067      133872.11649    103436.76249  21689319.2854   21689324.0224
  20217885.119    -5002011.16249  -3120123.08749  20217886.2084   20217891.0924
  24489806.222     1649467.08549   1274924.24949  24489810.1434   24489816.2504
  20243185.583    -1702727.93849  -1319655.55649  20243186.8354   20243192.2864
  24634918.082    -4669137.10359  -3604532.49059  24634918.3004   24634923.9844
  21309803.223    -6270202.37949  -4871959.59449  21309811.7954   21309818.5884
  21787506.574    -6163367.51949  -4790918.32149  21787507.2844   21787512.1974
 96  5 20 22 17 59.9990000  0  7 24 20  4  5 17 16  6
  21690045.032      137686.24249    106408.79249  21690044.3844   21690049.7964
  20199983.224    -5096089.28049  -3193430.71649  20199983.7924   20199989.3674
  24495363.019     1678641.98249   1297657.88549  24495362.2064   24495369.4534
  20238241.846    -1728716.63449  -1339906.51549  20238241.6864   20238246.5964
  24603137.419    -4836141.07849  -3734665.38549  24603136.8864   24603144.1424
  21286568.199    -6392346.32749  -4967136.64749  21286570.1534   21286574.7834
  21762952.893    -6292400.24649  -4891463.28749  21762952.9854   21762957.5344
 96  5 20 22 18 29.9980000  0  6 24 20  5 17 16  6
  21690787.651      141584.31849    109446.24349  21690786.1464   21690791.6684
  20182172.078    -5189683.62349  -3266361.37249  20182172.9394   20182178.3554
  20233375.502    -1754277.72249  -1359824.26149  20233377.6444   20233382.2834
  24571360.504    -5003138.13049  -3864792.86049  24571358.5384   24571366.2184
  21263399.492    -6514115.97049  -5062022.05149  21263397.0584   21263403.2884
  21738399.558    -6421422.22149  -4991999.87749  21738400.3104   21738405.5344
 96  5 20 22 18 59.9980000  0  6 24 20  5 17 16  6
  21691547.693      145594.55449    112571.08749  21691549.3794   21691554.5524
  20164456.692    -5282772.36549  -3338898.06149  20164458.6704   20164464.0534
  20228599.007    -1779391.04049  -1379393.10149  20228599.0724   20228603.7874
  24539588.094    -5170091.32649  -3994886.17749  24539588.8264   24539596.8374
  21240297.283    -6635496.97049  -5156604.61749  21240299.0354   21240306.1034
  21713850.798    -6550421.94449  -5092519.12049  21713853.0054   21713857.3854
 96  5 20 22 19 29.9980000  0  6 24 20  5 17 16  6
  21692330.331      149717.36449    115783.64449  21692334.0064   21692339.9224
  20146838.741    -5375362.08549  -3411045.88349  20146839.0584   20146845.2614
  20223902.222    -1804062.92349  -1398617.95649  20223903.7054   20223908.9774
  24507834.334    -5336969.04849  -4124920.66049  24507832.4424   24507841.0174
  21217280.763    -6756473.66049  -5250872.13549  21217278.6164   21217284.4374
  21689306.232    -6679400.66449  -5193021.99749  21689308.4054   21689313.4274
 96  5 20 22 19 59.9980000  0  6 24 20  5 17 16  6
  21693143.544      153968.22649    119095.98249  21693143.1534   21693147.9634
  20129316.762    -5467438.74749  -3482793.92249  20129318.0644   20129323.4474
  20219292.605    -1828297.13549  -1417501.76149  20219292.6454   20219297.1564
  24476093.642    -5503744.02749  -4254875.09449  24476096.2394   24476105.1554
  21194333.203    -6877024.17149  -5344807.57049  21194338.0784   21194345.4174
  21664770.364    -6808338.96449  -5293493.39549  21664771.5304   21664777.9284
 96  5 20 22 20 29.9980000  0  6 24 20  5 17 16  6
  21693971.811      158323.93249    122490.03549  21693971.9994   21693976.8624
  20111885.422    -5559036.32949  -3554168.65749  20111887.6614   20111892.8674
  20214755.615    -1852132.56049  -1436074.82549  20214757.1774   20214762.1174
  24444372.055    -5670440.45949  -4384768.33149  24444375.2594   24444383.0194
  21171478.569    -6997165.62649  -5438424.26049  21171476.1694   21171483.6594
  21640235.485    -6937263.59249  -5393954.13349  21640238.8694   21640244.4804
 96  5 20 22 20 59.9980000  0  6 24 20  5 17 16  6
  21694822.963      162821.39449    125994.52349  21694827.7164   21694832.7234
  20094552.216    -5650130.08949  -3625150.80849  20094553.0944   20094558.1004
  20210305.303    -1875528.75749  -1454305.63949  20210305.2874   20210309.9094
  24412676.396    -5837020.07949  -4514570.52649  24412677.3344   24412681.6424
  21148706.999    -7116824.55449  -5531664.97849  21148705.8464   21148712.3954
  21615712.487    -7066141.44649  -5494378.39349  21615714.6614   21615719.6684
 96  5 20 22 21 29.9980000  0  6 24 20  5 17 16  6
  21695699.255      167405.27949    129566.36449  21695700.1614   21695705.2334
  20077309.556    -5740746.12049  -3695760.70749  20077309.2624   20077314.0754
  20205927.469    -1898524.57849  -1472224.48749  20205928.9964   20205933.8434
  24380993.504    -6003523.88349  -4644313.64549  24380991.4814   24380996.9864
  21126017.898    -7236029.92349  -5624552.25849  21126021.8124   21126027.6624
  21591194.509    -7194992.62949  -5594781.87549  21591195.9504   21591199.5994
 96  5 20 22 21 59.9980000  0  6 24 20  5 17 16  6
  21696593.340      172093.28349    133219.32449  21696592.1444   21696597.3534
  20060162.881    -5830851.98949  -3765973.07049  20060163.0874   20060168.2764
  20201638.318    -1921071.93349  -1489793.86049  20201638.0074   20201642.9694
  24349320.406    -6169949.53349  -4773995.92549  24349319.8514   24349326.4124
  21103429.756    -7354760.80949  -5717069.80449  21103427.7914   21103433.4894
  21566687.987    -7323772.03849  -5695129.42849  21566689.9304   21566694.0024
 96  5 20 22 22 29.9980000  0  6 24 20  5 17 16  6
  21697497.047      176857.47849    136931.66849  21697498.6504   21697504.1844
  20043105.460    -5920483.13049  -3835815.51349  20043106.7714   20043111.9994
  20197431.675    -1943171.50049  -1507014.30949  20197432.7654   20197437.6594
  24317655.293    -6336331.77749  -4903644.34549  24317659.7614   24317666.7754
  21080919.489    -7473053.53149  -5809245.91949  21080918.4084   21080922.9984
  21542191.378    -7452508.78249  -5795443.73149  21542191.3484   21542196.6204
 96  5 20 22 22 59.9980000  0  6 24 20  5 17 16  6
  21698410.902      181678.18849    140688.03849  21698415.8414   21698422.0604
  20026134.930    -6009657.68049  -3905302.16949  20026137.1774   20026142.7824
  20193311.991    -1964823.26049  -1523885.82649  20193312.7324   20193317.2344
  24286005.189    -6502676.69449  -5033263.68349  24286005.0724   24286013.5204
  21058486.692    -7590925.05449  -5901093.83849  21058487.2114   21058492.4994
  21517695.301    -7581224.38549  -5895741.57149  21517698.1044   21517702.8754
 96  5 20 22 23 29.9980000  0  6 24 20  5 17 16  6
  21699341.956      186558.29749    144490.70349  21699344.8324   21699350.5464
  20009254.242    -6098369.45249  -3974428.21549  20009255.8494   20009261.6004
  20189276.205    -1986021.95049  -1540404.29849  20189278.5134   20189283.3624
  24254354.017    -6668977.05749  -5162848.34949  24254359.6274   24254367.8224
  21036134.796    -7708402.50749  -5992634.68449  21036132.1004   21036137.5854
  21493210.013    -7709900.41449  -5996008.57649  21493211.8244   21493216.3994
 96  5 20 22 23 59.9980000  0  6 24 20  5 17 16  6
  21700288.345      191535.20949    148368.80149  21700291.8474   21700297.5234
  19992467.119    -6186602.37449  -4043181.14449  19992466.0184   19992471.1014
  20185335.280    -2006746.10549  -1556553.00449  20185335.4254   20185340.6364
  24222724.864    -6835217.22149  -5292386.07149  24222723.6544   24222731.6534
  21013855.157    -7825461.07749  -6083849.13849  21013856.6624   21013862.0354
  21468731.363    -7838530.70149  -6096239.94249  21468734.3114   21468739.3434
 96  5 20 22 24 29.9980000  0  6 24 20  5 17 16  6
  21701262.474      196649.87349    152354.23649  21701265.1694   21701271.1054
  19975777.076    -6274304.90249  -4111520.77849  19975777.5484   19975781.5814
  20181484.414    -2026966.50349  -1572309.17749  20181487.1504   20181492.8114
  24191108.352    -7001333.35649  -5421827.12349  24191111.8964   24191124.4444
  20991670.061    -7942050.42949  -6174697.95749  20991670.4194   20991676.5404
  21444266.598    -7967095.42149  -6196420.23649  21444268.7354   21444274.0184
 96  5 20 22 24 59.9980000  0  6 24 20  5 17 16  6
  21702261.607      201891.95349    156438.95449  21702263.0914   21702268.4384
  19959189.078    -6361473.22049  -4179444.14949  19959189.2494   19959193.6374
  20177730.313    -2046713.25549  -1587696.27949  20177729.9834   20177734.8184
  24159523.396    -7167330.69649  -5551175.64149  24159524.5964   24159534.3854
  20969576.660    -8058154.20449  -6265168.41349  20969577.5454   20969581.5004
  21419811.080    -8095613.39649  -6296564.10049  21419812.2444   21419818.2844
 96  5 20 22 25 29.9980000  0  6 24 20  5 17 16  6
  21703277.246      207240.85349    160606.91549  21703280.5564   21703285.7244
  19942697.816    -6448125.16949  -4246965.14549  19942699.6864   19942704.4724
  20174055.145    -2066018.53249  -1602739.36249  20174056.0364   20174061.0654
  24127956.140    -7333231.86749  -5680449.18149  24127953.6714   24127959.5774
  20947571.349    -8173779.18249  -6355265.77149  20947574.4944   20947579.3364
  21395360.081    -8224110.64249  -6396691.80449  21395360.7044   21395365.4154
 96  5 20 22 25 59.9980000  0  6 24 20  5 17 16  6
  21704302.019      212604.52249    164786.38449  21704301.3634   21704306.6294
  19926291.768    -6534344.64249  -4314149.15649  19926293.6354   19926297.7494
  20170447.629    -2084972.62749  -1617508.78949  20170449.4214   20170454.3944
  24096386.226    -7499121.75949  -5809713.95249  24096387.7774   24096394.4484
  20925651.736    -8288996.34949  -6445045.35149  20925649.3064   20925653.8494
  21370888.969    -8352698.41449  -6496890.03849  21370890.4554   21370895.6794
 96  5 20 22 26 29.9980000  0  6 24 20  5 17 16  6
  21705362.399      218197.78149    169144.73449  21705365.6184   21705370.9854
  19910009.204    -6619916.20649  -4380828.30349  19910009.6204   19910014.1114
  20166946.142    -2103367.99449  -1631842.87049  20166948.1874   20166953.7804
  24064866.943    -7664777.06449  -5938795.89349  24064866.6954   24064870.1094
  20903839.954    -8403588.10949  -6534337.61549  20903843.3694   20903848.4274
  21346444.145    -8481154.12849  -6596985.38849  21346446.4604   21346452.0384
 96  5 20 22 26 59.9980000  0  6 24 20  5 17 16  6
  21706436.110      223825.61749    173530.03849  21706437.0694   21706441.8904
  19893807.973    -6705050.48749  -4447166.69849  19893809.5334   19893813.7284
  20163511.270    -2121415.79049  -1645906.10249  20163513.7764   20163519.6694
  24033346.174    -7830409.81249  -6067860.26849  24033346.2204   24033349.9704
  20882116.039    -8517763.00849  -6623305.05049  20882115.7464   20882121.9654
  21321989.942    -8609657.87049  -6697118.15349  21321992.6034   21321998.7924
 96  5 20 22 27 29.9980000  0  6 24 20  5 17 16  6
  21707505.243      229442.95549    177907.17149  21707505.5944   21707510.5244
  19877681.360    -6789789.74049  -4513197.28049  19877683.4334   19877688.6014
  20160140.370    -2139157.13149  -1659730.54149  20160138.5884   20160143.0874
  24001825.826    -7996052.83149  -6196932.65649  24001826.2444   24001829.0414
  20860451.533    -8631598.76949  -6712008.22949  20860452.9684   20860459.9104
  21297521.966    -8738233.67849  -6797307.08449  21297524.7264   21297532.1254
 96  5 20 22 27 59.9980000  0  6 24 20  5 17 16  6
  21708613.716      235276.94449    182453.12049  21708616.5444   21708620.9544
  19861676.386    -6873891.72649  -4578731.29149  19861678.6724   19861684.4014
  20156861.890    -2156363.08649  -1673137.79249  20156864.2334   20156868.0874
  23970346.522    -8161481.16349  -6325837.73449  23970345.5264   23970350.1584
  20838898.809    -8744878.90849  -6800278.45049  20838897.2514   20838902.0364
  21273090.638    -8866637.55349  -6897362.04349  21273091.2444   21273096.8244
 96  5 20 22 28 29.9980000  0  6 24 20  5 17 16  6
  21709743.813      241207.31049    187074.16149  21709744.8014   21709750.1274
  19845772.754    -6957476.82549  -4643862.54349  19845773.3324   19845778.3134
  20153665.402    -2173165.98449  -1686230.99249  20153666.6404   20153671.5194
  23938878.463    -8326823.91449  -6454676.17049  23938880.8934   23938886.5694
  20817419.755    -8857725.59949  -6888210.90049  20817423.6534   20817427.0944
  21248668.404    -8994978.18149  -6997367.70449  21248669.3534   21248674.4274
 96  5 20 22 28 59.9980000  0  6 24 20  5 17 16  6
  21710861.230      247092.05449    191659.64949  21710864.8204   21710869.9074
  19829940.904    -7040665.42349  -4708684.82549  19829943.0004   19829948.3804
  20150519.434    -2189682.16849  -1699100.74949  20150523.2374   20150528.5764
  23907411.830    -8492197.50749  -6583538.62849  23907411.8634   23907415.7464
  20796011.121    -8970264.00949  -6975903.13449  20796008.5964   20796013.6714
  21224233.456    -9123381.91449  -7097422.54649  21224234.5754   21224240.2244
 96  5 20 22 29 29.9980000  0  6 24 20  5 17 16  6
  21712016.984      253151.67549    196381.40549  21712017.7624   21712022.1164
  19814234.311    -7123211.05049  -4773006.08049  19814234.8954   19814240.5334
  20147481.751    -2205663.75849  -1711553.95149  20147482.3344   20147487.8364
  23875981.356    -8657362.87249  -6712238.78549  23875982.5704   23875985.5394
  20774698.689    -9082242.21449  -7063158.85249  20774699.4504   20774705.1824
  21199831.579    -9251621.75449  -7197349.66649  21199831.9494   21199837.5044
 96  5 20 22 29 59.9970000  0  6 24 20  5 17 16  6
  21713194.843      259344.96349    201207.32249  21713196.2434   21713200.6764
  19798641.735    -7205155.82449  -4836859.16649  19798641.7284   19798646.7474
  20144538.129    -2221132.17649  -1723607.28649  20144539.3254   20144544.5334
  23844581.883    -8822359.32149  -6840807.37849  23844582.9014   23844585.1244
  20753491.213    -9193663.55349  -7149980.64549  20753496.5264   20753501.8464
  21175451.748    -9379732.93749  -7297176.53749  21175453.1304   21175459.0944
 96  5 20 22 30 29.9970000  0  6 24 20  5 17 16  6
  21714347.741      265402.99949    205927.84649  21714348.4454   21714354.0314
  19783109.008    -7286779.89349  -4900462.33649  19783109.3004   19783114.3874
  20141641.503    -2236348.25249  -1735463.98649  20141643.3024   20141649.0434
  23813167.707    -8987458.94749  -6969456.34659  23813167.2244   23813170.4834
  20732345.206    -9304795.05049  -7236576.59349  20732347.8214   20732354.2064
  21151046.692    -9507987.51349  -7397115.14849  21151047.3374   21151052.5464
 96  5 20 22 30 59.9970000  0  6 24 20  5 17 16  6
  21715540.090      271681.35349    210820.02749  21715542.4744   21715548.2314
  19767704.818    -7367721.44549  -4963533.67349  19767706.5914   19767711.9584
  20138866.690    -2250940.03649  -1746834.22449  20138866.2464   20138872.0934
  23781798.050    -9152292.64749  -7097898.08849  23781799.8904   23781804.9434
  20711324.002    -9415267.63849  -7322659.12749  20711325.3004   20711332.6454
  21126681.551    -9636020.50649  -7496881.09749  21126683.3824   21126688.5294
 96  5 20 22 31 29.9970000  0  6 24 20  5 17 16  6
  21716704.316      277813.20149    215598.06249  21716709.4814   21716716.1144
  19752359.045    -7448367.39649  -5026374.66649  19752360.1774   19752365.7684
  20136132.155    -2265294.80549  -1758019.76649  20136134.6644   20136139.6784
  23750403.088    -9317260.24149  -7226444.20949  23750406.4384   23750413.1924
  20690359.212    -9525459.10249  -7408522.57249  20690357.1884   20690364.3924
  21102287.770    -9764210.79249  -7596769.61249  21102289.4164   21102293.8694
 96  5 20 22 31 59.9970000  0  6 24 20  5 17 16  6
  21717929.444      284241.29649    220606.92549  21717933.0684   21717938.7804
  19737149.241    -7528294.39849  -5088655.46249  19737150.9074   19737155.9634
  20133525.138    -2278995.62649  -1768695.76349  20133527.8714   20133532.6274
  23719068.288    -9481937.93249  -7354764.44049  23719070.3904   23719075.4474
  20669519.381    -9634943.47149  -7493835.06549  20669522.3944   20669529.9054
  21077946.614    -9892126.03849  -7696443.80649  21077947.5084   21077953.3234
 96  5 20 22 32 29.9970000  0  6 24 20  5 17 16  6
  21719130.939      290534.71849    225510.86449  21719131.1024   21719135.8104
  19721994.627    -7607931.02549  -5150709.97149  19721996.1404   19722001.4744
  20130957.967    -2292495.83149  -1779215.42549  20130958.6134   20130963.8894
  23687705.563    -9646757.28049  -7483195.01849  23687705.3824   23687712.4654
  20648741.122    -9744151.81249  -7578932.47549  20648741.1534   20648747.0324
  21053574.115   -10020202.53649  -7796243.65049  21053574.8674   21053581.0994
 96  5 20 22 32 59.9970000  0  6 24 20  5 17 16  6
  21720370.332      297051.94849    230589.21049  21720371.6064   21720375.5804
  19706967.812    -7686904.16249  -5212247.48249  19706968.1264   19706973.1474
  20128493.259    -2305432.43849  -1789295.90449  20128496.8074   20128502.1154
  23656383.567    -9811357.17949  -7611454.60749  23656383.1754   23656390.8234
  20628083.467    -9852710.27949  -7663523.47449  20628082.4804   20628088.1854
  21029239.171   -10148083.02749  -7895890.78349  21029240.4004   21029245.8774
 96  5 20 22 33 29.9970000  0  6 24 20  5 17 16  6
  21721648.714      303768.74349    235823.06249  21721649.7904   21721653.7034
  19692062.190    -7765230.07649  -5273280.66349  19692063.3104   19692068.6484
  20126136.722    -2317832.91549  -1798958.63749  20126136.7654   20126142.2124
  23625096.473    -9975752.34049  -7739554.67949  23625099.5444   23625106.8804
  20607540.583    -9960650.06549  -7747632.37149  20607544.0284   20607548.9114
  21004937.150   -10275782.65649  -7995396.97649  21004939.7194   21004945.6734
 96  5 20 22 33 59.9970000  0  6 24 20  5 17 16  6
  21722902.358      310353.32449    240953.90049  21722902.4914   21722907.1724
  19677223.476    -7843212.85049  -5334046.45649  19677223.9964   19677228.9894
  20123817.616    -2330015.78049  -1808451.78149  20123818.2584   20123823.9654
  23593798.797   -10140241.06249  -7867727.63449  23593799.1004   23593807.2814
  20587058.473   -10068294.90449  -7831511.43949  20587058.8834   20587066.3714
  20980609.794   -10403631.21049  -8095019.21049  20980611.1294   20980616.9834
 96  5 20 22 34 29.9970000  0  6 24 20  5 17 16  6
  21724188.811      317123.16849    246229.08449  21724190.6174   21724196.2264
  19662510.901    -7920525.33949  -5394289.96249  19662512.1114   19662516.7474
  20121601.723    -2341652.24549  -1817519.16449  20121604.2874   20121610.0144
  23562546.773   -10304490.01449  -7995713.76949  23562543.9624   23562551.0564
  20566689.289   -10175326.68649  -7914912.80449  20566692.2004   20566697.2804
  20956314.702   -10531302.71549  -8194503.49649  20956316.4674   20956321.6374
 96  5 20 22 34 59.9970000  0  6 24 20  5 17 16  6
  21725477.644      323891.20149    251502.85049  21725478.5214   21725484.3044
  19647890.604    -7997357.58449  -5454159.24949  19647890.6474   19647896.6544
  20119457.713    -2352923.27549  -1826301.80049  20119459.8454   20119465.0394
  23531298.707   -10468678.44749  -8123652.76849  23531298.5054   23531306.1914
  20546399.862   -10281944.66049  -7997991.73149  20546402.8734   20546409.7764
  20932019.163   -10658979.23549  -8293991.68649  20932020.2904   20932024.5794
 96  5 20 22 35 29.9970000  0  6 24 20  5 17 16  6
  21726770.387      330696.36549    256805.54949  21726774.0624   21726779.4194
  19633363.203    -8073688.35849  -5513637.78149  19633365.4314   19633371.2154
  20117392.240    -2363800.36349  -1834777.48149  20117390.7374   20117394.9984
  23500074.459   -10632762.36549  -8251510.32649  23500074.2944   23500080.7464
  20526199.515   -10388122.06449  -8080727.36549  20526197.2214   20526204.2634
  20907729.257   -10786622.20749  -8393453.72449  20907730.5714   20907735.4364
 96  5 20 22 35 59.9970000  0  6 24 20  5 17 16  6
  21728095.436      337644.22249    262219.45249  21728096.1834   21728101.5884
  19618953.079    -8149419.05449  -5572648.70949  19618954.4024   19618959.8254
  20115416.883    -2374178.54449  -1842864.37649  20115415.7294   20115420.0814
  23468890.745   -10796631.92349  -8379200.82549  23468890.3554   23468898.9114
  20506101.137   -10493727.18949  -8163017.05949  20506102.2694   20506108.4644
  20883466.419   -10914118.35949  -8492801.34849  20883468.8514   20883473.3494
 96  5 20 22 36 29.9970000  0  6 24 20  5 17 16  6
  21729436.871      344699.23249    267716.83549  21729438.6214   21729443.9394
  19604646.958    -8224597.03549  -5631228.94349  19604647.9604   19604653.5994
  20113525.835    -2384092.56749  -1850589.59949  20113528.9834   20113533.7584
  23437736.530   -10960336.81649  -8506763.00349  23437738.8114   23437746.5024
  20486109.389   -10598791.46949  -8244885.31649  20486109.1664   20486114.5884
  20859231.248   -11041481.26949  -8592045.15449  20859232.3554   20859237.1284
 96  5 20 22 36 59.9970000  0  6 24 20  5 17 16  6
  21730786.454      351780.82949    273234.93449  21730786.6534   21730791.7364
  19590432.743    -8299292.06149  -5689432.85549  19590433.7094   19590439.8744
  20111718.581    -2393608.43349  -1858004.56649  20111718.0354   20111722.9754
  23406601.277   -11123948.17349  -8634252.29849  23406605.7034   23406611.7254
  20466206.996   -10703370.20249  -8326375.21749  20466208.3174   20466214.0444
  20835002.508   -11168798.08249  -8691253.03049  20835004.9004   20835009.5504
 96  5 20 22 37 29.9970000  0  6 24 20  5 17 16  6
  21732147.034      358948.82149    278820.35749  21732150.4704   21732156.1934
  19576323.555    -8373431.88049  -5747204.15249  19576325.7134   19576331.6804
  20109994.869    -2402663.28349  -1865060.30649  20109995.1454   20110000.1804
  23375498.354   -11287401.91249  -8761618.73949  23375501.5734   23375507.3174
  20446415.511   -10807386.87749  -8407427.14849  20446414.3654   20446420.5374
  20810795.584   -11296011.00249  -8790379.95449  20810797.4024   20810801.5294
 96  5 20 22 37 59.9970000  0  6 24 20  5 17 16  6
  21733533.677      366219.51449    284485.79449  21733534.1184   21733539.4724
  19562326.011    -8446995.03849  -5804526.08649  19562327.0994   19562333.3274
  20108361.390    -2411246.99149  -1871748.93349  20108361.5684   20108366.7904
  23344427.926   -11450690.69049  -8888856.64449  23344429.8574   23344436.0854
  20426731.474   -10910825.02649  -8488028.28349  20426731.7324   20426737.4994
  20786607.243   -11423117.66449  -8889424.09249  20786609.1854   20786614.5564
 96  5 20 22 38 29.9970000  0  6 24 20  5 17 16  6
  21734906.445      373447.21349    290117.73949  21734909.1774   21734915.1254
  19548410.714    -8520120.79349  -5861507.20749  19548411.5564   19548418.2674
  20106788.746    -2419513.88949  -1878190.69449  20106788.7464   20106793.2244
  23313357.054   -11613968.65449  -9016086.14549  23313359.4414   23313365.6244
  20407126.998   -11013852.97449  -8568309.76949  20407125.9114   20407130.9934
  20762408.862   -11550280.52949  -8988512.02549  20762410.6914   20762416.1424
 96  5 20 22 38 59.9970000  0  6 24 20  5 17 16  6
  21736316.171      380842.40049    295880.19449  21736316.5274   21736321.7764
  19534619.589    -8592588.49949  -5917975.54349  19534621.2004   19534627.8094
  20105313.027    -2427260.09349  -1884226.71149  20105314.5164   20105319.2344
  23282334.201   -11777015.11449  -9143135.26549  23282332.1924   23282339.0734
  20387637.944   -11116264.04649  -8648110.58249  20387637.7284   20387642.1014
  20738241.069   -11677294.32649  -9087483.79249  20738241.6354   20738246.2924
 96  5 20 22 39 29.9970000  0  6 24 20  5 17 16  6
  21737718.540      388221.23149    301629.92449  21737721.0724   21737726.3644
  19520920.787    -8664586.00049  -5974077.48749  19520920.7544   19520926.6834
  20103899.981    -2434693.33349  -1890018.85649  20103900.6054   20103903.9174
  23251311.096   -11940013.82149  -9270147.19149  23251314.0864   23251321.5324
  20368229.789   -11218260.71749  -8727588.47149  20368229.2984   20368234.0034
  20714069.007   -11804318.73749  -9186463.83949  20714069.3044   20714073.6234
 96  5 20 22 39 59.9970000  0  6 24 20  5 17 16  6
  21739143.896      395714.01449    307468.44049  21739146.2264   21739151.8994
  19507333.832    -8735981.32249  -6029710.21049  19507334.9694   19507341.0344
  20102569.421    -2441687.56449  -1895468.93049  20102570.0274   20102573.0214
  23220328.107   -12102841.85049  -9397026.14549  23220326.6734   23220335.7354
  20348919.361   -11319720.33349  -8806647.89649  20348921.3204   20348926.7434
  20689921.178   -11931212.54549  -9285342.11149  20689921.9694   20689926.7384
 96  5 20 22 40 29.9970000  0  6 24 20  5 17 16  6
  21740577.274      403240.84749    313333.48749  21740578.3434   21740583.8914
  19493849.299    -8806845.40549  -6084928.97949  19493850.1304   19493855.8984
  20101311.355    -2448299.45149  -1900621.07549  20101311.7254   20101314.3804
  23189356.651   -12265562.49949  -9523821.44649  23189359.2414   23189370.4324
  20329704.176   -11420706.63949  -8885338.52049  20329704.0104   20329710.8154
  20665786.776   -12058030.54249  -9384161.30449  20665790.1874   20665793.9474
 96  5 20 22 40 59.9960000  0  6 24 20  5 17 16  6
  21742008.713      410764.63949    319196.16249  21742010.0174   21742015.6874
  19480458.828    -8877208.85149  -6139757.64249  19480460.2334   19480465.9954
  20100120.137    -2454549.13149  -1905490.97549  20100122.1594   20100125.8214
  23158406.035   -12428201.00349  -9650552.72749  23158409.0044   23158422.5264
  20310574.313   -11521238.99949  -8963675.40249  20310574.8824   20310579.6164
  20641663.351   -12184806.75149  -9482947.93249  20641665.0824   20641669.7454
 96  5 20 22 41 29.9960000  0  6 24 20  5 17 16  6
  21743457.432      418385.76449    325134.68349  21743460.8784   21743466.1384
  19467182.797    -8946980.24849  -6194124.97049  19467183.4644   19467189.3524
  20099018.778    -2460342.27349  -1910005.13249  20099019.8854   20099023.9604
  23127493.601   -12590679.10349  -9777159.05649  23127493.7904   23127503.0894
  20291542.306   -11621221.27649  -9041583.64749  20291548.2794   20291553.2284
  20617558.832   -12311466.55049  -9581643.86549  20617561.6874   20617566.8964
 96  5 20 22 41 59.9960000  0  6 24 20  5 17 16  6
  21744877.545      425843.13349    330945.59349  21744879.8674   21744886.0504
  19453968.962    -9016421.22349  -6248234.82749  19453969.4684   19453974.8884
  20097957.260    -2465921.90849  -1914352.92149  20097957.7724   20097962.7394
  23096560.811   -12753258.98049  -9903844.61449  23096552.4054   23096563.1934
  20272581.970   -11720902.61349  -9119257.40349  20272579.3314   20272584.8954
  20593429.188   -12438279.32349  -9680458.99249  20593429.1054   20593435.6014
 96  5 20 22 42 29.9960000  0  6 24 20  5 17 16  6
  21746305.014      433345.15849    336791.30849  21746307.8574   21746313.7274
  19440857.164    -9085324.37749  -6301925.60549  19440858.2744   19440863.1004
  20096975.589    -2471071.98349  -1918365.99549  20096977.4454   20096982.5714
  23065631.381   -12915715.84249 -10030434.34149  23065638.3084   23065650.0034
  20253705.142   -11820050.74849  -9196515.70149  20253710.7524   20253716.7874
  20569307.532   -12565037.61049  -9779231.67049  20569307.5844   20569313.8344
 96  5 20 22 42 59.9960000  0  6 24 20  5 17 16  6
  21747771.385      441043.54549    342790.02449  21747772.8964   21747778.9774
  19427875.841    -9153537.00549  -6355078.30549  19427877.7324   19427882.9884
  20096101.193    -2475664.81049  -1921944.84649  20096103.7814   20096108.8394
  23034775.642   -13077903.83449 -10156814.58449  23034777.9084   23034786.4274
  20234975.976   -11918512.47949  -9273239.08649  20234975.6714   20234980.0994
  20545222.639   -12691587.30849  -9877841.81849  20545225.8464   20545232.2734
 96  5 20 22 43 29.9960000  0  6 24 20  5 17 16  6
  21749242.069      448775.75249    348815.08549  21749244.3534   21749250.5184
  19414997.821    -9221220.73549  -6407818.88549  19414997.6714   19415002.6714
  20095302.496    -2479864.59849  -1925217.41549  20095304.5884   20095309.0084
  23003932.601   -13239968.92949 -10283098.98249  23003936.7894   23003946.0974
  20216338.977   -12016430.02149  -9349538.43549  20216341.3314   20216346.6994
  20521156.653   -12818065.08949  -9976395.91949  20521159.0104   20521164.5354
 96  5 20 22 43 59.9960000  0  6 24 20  5 17 16  6
  21750725.380      456563.97449    354883.79449  21750726.5614   21750732.2814
  19402222.825    -9288347.12049  -6460125.16449  19402224.4614   19402228.8304
  20094585.757    -2483631.91949  -1928153.02249  20094587.5184   20094591.7664
  22973122.425   -13401867.29349 -10409253.48849  22973131.0894   22973136.8654
  20197819.537   -12113762.36849  -9425381.80449  20197818.9684   20197824.8024
  20497114.770   -12944417.32449 -10074852.19849  20497115.6994   20497120.7914
 96  5 20 22 44 29.9960000  0  6 24 20  5 17 16  6
  21752212.134      464377.34049    360972.10649  21752213.8354   21752218.8824
  19389552.592    -9354934.92349  -6512011.77049  19389553.1984   19389557.6764
  20093944.700    -2487007.83749  -1930783.63049  20093945.0104   20093949.7794
  22942350.761   -13563629.86249 -10535302.14149  22942350.1164   22942351.7514
  20179405.506   -12210540.53849  -9500793.37049  20179404.1284   20179409.4994
  20473090.707   -13070668.61249 -10173229.80349  20473091.2524   20473095.8464
 96  5 20 22 44 59.9960000  0  6 24 20  5 17 16  6
  21753701.929      472213.63249    367078.28649  21753704.7134   21753710.0484
  19376981.630    -9420988.49049  -6563482.09049  19376983.5614   19376988.2494
  20093370.193    -2490007.47649  -1933121.03549  20093373.7524   20093379.3884
  22911585.121   -13725281.49749 -10661264.35749  22911586.3814   22911592.8254
  20161086.929   -12306791.99049  -9575794.51949  20161088.3274   20161092.4704
  20449081.713   -13196824.71749 -10271533.23949  20449084.1244   20449089.0954
 96  5 20 22 45 29.9960000  0  6 24 20  5 17 16  6
  21755182.805      479997.36249    373143.50749  21755185.5864   21755190.7394
  19364501.494    -9486584.80649  -6614596.11349  19364501.0464   19364505.2384
  20092858.708    -2492703.76049  -1935222.05649  20092860.7074   20092865.8234
  22880824.654   -13886893.36549 -10787195.64149  22880831.5644   22880840.3104
  20142851.836   -12402613.54349  -9650460.65949  20142854.1704   20142858.5264
  20425080.490   -13322957.68949 -10369818.64449  20425082.2824   20425086.3934
 96  5 20 22 45 59.9960000  0  6 24 20  5 17 16  6
  21756709.599      488013.69349    379389.97349  21756711.3434   21756716.5164
  19352155.857    -9551452.68649  -6665142.53149  19352157.1584   19352161.5944
  20092456.334    -2494832.91449  -1936881.16549  20092455.8604   20092461.3704
  22850134.812   -14048205.35249 -10912893.25549  22850135.5614   22850142.8494
  20124748.210   -12497753.74849  -9724595.85449  20124749.0974   20124754.2894
  20401135.464   -13448790.69649 -10467870.30949  20401136.7334   20401141.1694
 96  5 20 22 46 29.9960000  0  6 24 20  5 17 16  6
  21758208.273      495895.81149    385531.84849  21758211.0884   21758216.5244
  19339878.988    -9615965.21649  -6715412.03949  19339880.7024   19339885.1514
  20092083.772    -2496777.68949  -1938396.61049  20092085.6904   20092091.3934
  22819426.614   -14209581.49749 -11038640.90949  22819426.9654   22819433.6554
  20106704.499   -12592584.99149  -9798490.29549  20106703.7114   20106708.4884
  20377174.055   -13574700.80149 -10565982.04749  20377175.9754   20377182.0494
 96  5 20 22 46 59.9960000  0  6 24 20  5 17 16  6
  21759693.550      503689.36049    391604.72049  21759694.3244   21759699.9054
  19327681.404    -9680070.89649  -6765364.52449  19327681.9294   19327686.7484
  20091763.977    -2498474.45149  -1939718.78949  20091763.3574   20091768.3504
  22788721.762   -14370939.12449 -11164374.07849  22788722.8254   22788728.3514
  20088725.744   -12687037.67049  -9872089.76749  20088729.6564   20088733.2634
  20353211.156   -13700625.22749 -10664104.95849  20353213.5514   20353219.5944
 96  5 20 22 47 29.9960000  0  6 24 20  5 17 16  6
  21761165.159      511432.97349    397638.67549  21761167.7214   21761173.3754
  19315569.786    -9743710.40549  -6814953.75849  19315571.7224   19315576.4374
  20091497.563    -2499855.43049  -1940794.90749  20091500.6434   20091505.3004
  22758036.502   -14532196.16749 -11290028.87649  22758036.3494   22758043.7694
  20070843.263   -12781038.84949  -9945337.41649  20070840.8914   20070846.0544
  20329257.241   -13826502.89249 -10762191.43849  20329259.4994   20329266.1684
 96  5 20 22 47 59.9960000  0  6 24 20  5 17 16  6
  21762675.848      519372.34249    403825.17349  21762678.6244   21762684.2564
  19303600.369    -9806614.39049  -6863969.85749  19303601.6714   19303605.5294
  20091349.959    -2500653.05249  -1941416.45549  20091349.2844   20091353.4974
  22727415.226   -14693090.15149 -11415400.79349  22727419.5164   22727426.6064
  20053092.843   -12874298.28149 -10018007.09449  20053094.8704   20053099.8544
  20305357.888   -13952097.20049 -10860057.11849  20305359.8544   20305365.6344
 96  5 20 22 48 29.9960000  0  6 24 20  5 17 16  6
  21764214.480      527453.98949    410122.53849  21764216.3974   21764222.5724
  19291763.401    -9868808.33349  -6912432.68949  19291765.9414   19291769.6634
  20091298.215    -2500899.53649  -1941608.55549  20091302.3024   20091306.9484
  22696861.711   -14853658.21949 -11540518.74749  22696863.9874   22696869.5844
  20035483.239   -12966838.73649 -10090116.52749  20035484.8434   20035489.6294
  20281501.490   -14077465.68849 -10957746.84249  20281503.0324   20281508.7564
 96  5 20 22 48 59.9960000  0  6 24 20  5 17 16  6
  21765758.877      535578.43149    416453.25149  21765762.5114   21765768.1554
  19280047.951    -9930382.37249  -6960412.47349  19280049.1804   19280053.2154
  20091340.775    -2500688.39349  -1941444.05749  20091342.2114   20091347.2454
  22666350.300   -15014011.57849 -11665469.36449  22666350.9664   22666356.8594
  20017990.957   -13058758.69349 -10161742.44649  20017993.1894   20017998.7994
  20257669.421   -14202709.22449 -11055339.20149  20257670.0904   20257675.9264
 96  5 20 22 49 29.9960000  0  6 24 20  5 17 16  6
  21767300.575      543676.75549    422763.61549  21767303.5394   21767309.7404
  19268433.891    -9991416.32049  -7007971.38949  19268434.4854   19268439.2294
  20091448.749    -2500115.00449  -1940997.27549  20091451.2584   20091456.4554
  22635853.558   -15174253.95649 -11790333.53149  22635857.9364   22635863.6234
  20000601.131   -13150149.81449 -10232956.29049  20000602.2894   20000607.6604
  20233841.196   -14327924.49349 -11152909.53749  20233842.7934   20233848.1724
 96  5 20 22 49 59.9960000  0  6 24 20  5 17 16  6
  21768849.070      551801.31149    429094.40949  21768850.2584   21768855.5824
  19256923.782   -10051890.07349  -7055093.81149  19256926.6134   19256931.3344
  20091628.243    -2499173.91249  -1940263.97549  20091630.0194   20091635.4964
  22605387.227   -15334373.94149 -11915102.30749  22605387.6624   22605393.5684
  19983312.867   -13240992.85949 -10303743.05749  19983315.3054   19983321.0424
  20210024.308   -14453088.99349 -11250440.30649  20210025.2284   20210029.4314
 96  5 20 22 50 29.9960000  0  6 24 20  5 17 16  6
  21770411.299      560011.92149    435492.26349  21770412.2674   21770417.3264
  19245528.062   -10111783.37349  -7101763.92449  19245529.5784   19245534.4494
  20091884.018    -2497831.71849  -1939218.13649  20091885.6974   20091891.6474
  22574945.573   -15494338.05549 -12039749.60449  22574947.7064   22574954.3594
  19966134.121   -13331260.29449 -10374081.29849  19966138.3054   19966143.6204
  20186226.890   -14578140.30949 -11347882.88049  20186228.4064   20186233.1064
 96  5 20 22 50 59.9960000  0  6 24 20  5 17 16  6
  21771952.090      568127.93549    441816.40949  21771956.4744   21771961.9234
  19234203.225   -10171300.27849  -7148140.74049  19234204.0554   19234208.5804
  20092180.186    -2496286.91149  -1938014.42149  20092180.5984   20092186.1264
  22544501.566   -15654318.19349 -12164409.45749  22544503.4094   22544510.2674
  19949032.385   -13421159.80049 -10444132.83449  19949030.4164   19949034.9424
  20162419.166   -14703246.83449 -11445368.47449  20162421.0044   20162426.4574
 96  5 20 22 51 29.9960000  0  6 24 20  5 17 16  6
  21773480.133      576138.53249    448058.39449  21773481.1284   21773486.2504
  19222943.651   -10230462.37249  -7194241.09649  19222945.7844   19222950.3504
  20092507.099    -2494561.07149  -1936669.64849  20092508.8424   20092514.6294
  22514053.566   -15814322.71849 -12289088.28449  22514053.8444   22514062.8284
  19931986.254   -13510710.33949 -10513912.46649  19931989.4054   19931994.8044
  20138599.604   -14828415.54949 -11542902.52649  20138602.5654   20138607.8224
 96  5 20 22 51 59.9950000  0  6 24 20  5 17 16  6
  21774974.817      583997.51249    454182.25549  21774976.7284   21774982.0844
  19211747.177   -10289309.06449  -7240095.65349  19211748.2164   19211753.0404
  20092865.383    -2492676.74049  -1935201.36349  20092867.1764   20092872.7044
  22483598.695   -15974367.19149 -12413798.22749  22483600.3274   22483606.9084
  19915007.492   -13599928.19049 -10583432.85949  19915011.1634   19915017.4954
  20114770.146   -14953653.86849 -11640490.80849  20114770.9064   20114775.8164
 96  5 20 22 52 29.9950000  0  6 24 20  5 17 16  6
  21776545.767      592256.36749    460617.68349  21776547.4384   21776553.7494
  19200716.034   -10347267.64549  -7285258.19649  19200718.1944   19200723.4984
  20093364.015    -2490049.41949  -1933154.11949  20093367.0884   20093372.1234
  22453242.872   -16133878.58449 -12538092.74749  22453245.0424   22453252.0664
  19898204.244   -13688243.74649 -10652250.18649  19898205.2884   19898212.1624
  20091030.880   -15078389.25349 -11737687.19749  20091033.6614   20091038.9164
 96  5 20 22 52 59.9950000  0  6 24 20  5 17 16  6
  21778128.116      600566.33749    467092.94049  21778129.6224   21778135.2444
  19189798.813   -10404641.95149  -7329965.44649  19189800.5414   19189805.6694
  20093947.618    -2486998.69749  -1930776.94449  20093947.3714   20093952.0264
  22422934.651   -16293163.92449 -12662211.12549  22422934.1274   22422940.5584
  19881510.661   -13775971.96149 -10720609.81649  19881511.7774   19881517.1064
  20067327.781   -15202949.47649 -11834747.11449  20067331.1824   20067335.5894
 96  5 20 22 53 29.9950000  0  6 24 20  5 17 16  6
  21779727.201      608977.63749    473647.17249  21779730.2724   21779735.2034
  19179008.298   -10461351.89749  -7374155.03349  19179009.4044   19179014.3104
  20094618.487    -2483454.13149  -1928014.97949  20094621.9544   20094626.6104
  22392672.404   -16452176.10949 -12786116.66749  22392673.1144   22392681.0584
  19864945.858   -13863027.02249 -10788444.90949  19864946.3314   19864950.2824
  20043667.832   -15327286.13549 -11931632.81049  20043670.3634   20043675.4064
 96  5 20 22 53 59.9950000  0  6 24 20  5 17 16  6
  21781285.078      617146.67549    480012.62049  21781284.7334   21781290.2284
  19168278.819   -10517728.05949  -7418084.51849  19168281.1164   19168285.7704
  20095324.438    -2479753.91349  -1925131.74749  20095326.4724   20095330.6244
  22362395.598   -16611262.72349 -12910080.22849  22362399.8894   22362408.6444
  19848436.482   -13949749.59849 -10856020.91349  19848442.4964   19848448.5204
  20019984.853   -15451742.04949 -12028611.43549  20019987.3464   20019992.5014
 96  5 20 22 54 29.9950000  0  6 24 20  5 17 16  6
  21782856.703      625424.34249    486462.72549  21782859.2344   21782865.5944
  19157682.944   -10573417.19849  -7461478.66949  19157684.0144   19157688.9754
  20096122.571    -2475561.57649  -1921865.01949  20096123.8764   20096128.1764
  22332176.838   -16770091.51149 -13033842.89149  22332176.0914   22332185.3164
  19832064.686   -14035822.67249 -10923090.83149  19832063.5464   19832069.7044
  19996341.620   -15575993.66149 -12125430.86449  19996343.0874   19996348.1194
 96  5 20 22 54 59.9950000  0  6 24 20  5 17 16  6
  21784419.760      633645.19149    492868.55549  21784423.4854   21784429.7064
  19147181.911   -10628597.00149  -7504475.91849  19147182.9964   19147188.8714
  20096980.303    -2471056.88549  -1918354.89649  20096981.3024   20096985.5704
  22301965.144   -16928840.65049 -13157543.46849  22301968.7894   22301974.9284
  19815775.958   -14121408.70949 -10989781.25849  19815777.8164   19815782.9844
  19972701.986   -15700220.30549 -12222230.83049  19972704.1074   19972709.1414
 96  5 20 22 55 29.9950000  0  6 24 20  5 17 16  6
  21786029.510      642112.41249    499466.35649  21786034.3594   21786040.7674
  19136829.004   -10683004.55649  -7546871.42449  19136829.8484   19136835.4374
  20097945.814    -2465971.44549  -1914392.23649  20097948.9174   20097953.3204
  22271825.644   -17087233.46549 -13280966.37549  22271827.2754   22271834.6334
  19799633.806   -14206232.61049 -11055877.78849  19799636.3264   19799641.7884
  19949121.360   -15824137.29749 -12318789.51049  19949122.9734   19949128.5314
 96  5 20 22 55 59.9950000  0  6 24 20  5 17 16  6
  21787665.881      650704.14249    506161.17749  21787669.5424   21787675.6144
  19126593.577   -10736792.61349  -7588784.20449  19126594.1504   19126599.5694
  20098999.652    -2460442.19449  -1910083.74549  20099000.5004   20099005.4854
  22241727.666   -17245386.84249 -13404202.72949  22241731.3404   22241736.6824
  19783614.224   -14290426.27149 -11121483.22649  19783614.3944   19783619.0474
  19925576.265   -15947866.65949 -12415201.99049  19925578.0274   19925583.1194
 96  5 20 22 56 29.9950000  0  6 24 20  5 17 16  6
  21789320.129      659393.39049    512932.01549  21789323.3184   21789329.2514
  19116470.541   -10789992.17049  -7630238.40849  19116470.8474   19116476.1064
  20100131.281    -2454492.97149  -1905448.01949  20100132.9264   20100138.7474
  22211682.336   -17403301.13649 -13527252.74249  22211681.1764   22211685.9524
  19767712.228   -14373984.44149 -11186593.47849  19767713.0194   19767718.7254
  19902064.836   -16071422.09749 -12511478.94149  19902066.0314   19902070.4784
 96  5 20 22 56 59.9950000  0  6 24 20  5 17 16  6
  21790992.270      668157.57449    519761.21749  21790991.6844   21790996.7394
  19106453.924   -10842623.88349  -7671250.15049  19106455.2694   19106460.1764
  20101343.078    -2448133.85449  -1900492.90949  20101343.4644   20101349.0934
  22181672.204   -17560986.23149 -13650124.22049  22181672.3094   22181680.6274
  19751933.033   -14456899.57649 -11251202.67249  19751934.9694   19751941.0994
  19878584.869   -16194803.68349 -12607620.42249  19878586.5754   19878591.7084
 96  5 20 22 57 29.9950000  0  6 24 20  5 17 16  6
  21792665.842      676955.19049    526616.45449  21792666.8364   21792671.7704
  19096541.213   -10894709.68949  -7711836.49849  19096543.4804   19096548.9844
  20102622.969    -2441397.72749  -1895244.02349  20102625.3474   20102630.6214
  22151698.355   -17718484.36149 -13772850.00849  22151701.2184   22151710.3014
  19736265.496   -14539213.61649 -11315343.46849  19736271.8794   19736276.9614
  19855132.750   -16318036.49149 -12703645.95649  19855136.9334   19855141.3524
 96  5 20 22 57 59.9950000  0  6 24 20  5 17 16  6
  21794337.956      685752.92649    533471.78749  21794340.3424   21794346.3184
  19086736.039   -10946247.76549  -7751996.04949  19086736.4664   19086741.6434
  20103977.238    -2434295.68649  -1889709.99849  20103976.4904   20103981.8274
  22121762.553   -17875822.68849 -13895451.26449  22121763.8864   22121770.2334
  19720715.056   -14620940.70649 -11379026.90749  19720719.1594   19720725.1494
  19831709.328   -16441142.73749 -12799572.89649  19831710.6904   19831715.2474
 96  5 20 22 58 29.9950000  0  6 24 20  5 17 16  6
  21796007.895      694537.59549    540316.94849  21796011.6604   21796017.5714
  19077030.634   -10997235.82549  -7791727.01249  19077033.4934   19077039.2754
  20105392.717    -2426834.68049  -1883896.25249  20105395.9194   20105401.1464
  22091841.648   -18033021.91949 -14017944.14049  22091845.8994   22091855.1804
  19705273.675   -14702107.10649 -11442273.44649  19705273.6614   19705280.0454
  19808305.915   -16564133.21949 -12895409.62549  19808306.1684   19808310.4894
 96  5 20 22 58 59.9950000  0  6 24 20  5 17 16  6
  21797687.257      703350.48749    547184.08249  21797689.0244   21797694.7424
  19067444.835   -11047622.65149  -7830989.48749  19067445.4474   19067451.0344
  20106889.763    -2418977.64149  -1877773.92149  20106891.0194   20106897.2014
  22061968.338   -18190058.82449 -14140310.55149  22061966.8014   22061973.0624
  19689937.972   -14782693.90949 -11505068.34849  19689937.8174   19689944.3984
  19784929.379   -16686970.12249 -12991126.69149  19784931.1144   19784935.6884
 96  5 20 22 59 29.9950000  0  6 24 20  5 17 16  6
  21799316.852      711935.49549    553873.66249  21799322.7984   21799328.6394
  19057920.735   -11097670.06549  -7869987.47949  19057921.4014   19057927.1104
  20108407.692    -2411005.45249  -1871561.87049  20108408.9314   20108414.1014
  22032065.555   -18347191.92449 -14262751.83849  22032063.8704   22032073.0164
  19674657.106   -14862967.90649 -11567619.49549  19674661.8554   19674667.9414
  19761532.533   -16809921.29649 -13086932.78249  19761534.7754   19761539.7684
 96  5 20 22 59 59.9950000  0  6 24 20  5 17 16  6
  21800989.033      720692.28949    560697.09049  21800989.8294   21800994.1604
  19048534.080   -11146991.55649  -7908419.83249  19048536.1824   19048540.8694
  20110018.584    -2402530.70549  -1864958.20949  20110021.5984   20110026.4364
  22002218.621   -18504005.82349 -14384944.43849  22002223.3504   22002231.7094
  19659517.734   -14942540.86849 -11629624.39249  19659521.0704   19659525.7474
  19738191.876   -16932584.81949 -13182514.73449  19738192.8244   19738197.6614
 96  5 20 23  0 29.9950000  0  6 24 20  5 17 16  6
  21802627.006      729298.88949    567403.46849  21802627.4894   21802631.7544
  19039227.104   -11195906.14649  -7946535.09549  19039228.3814   19039232.8134
  20111667.188    -2393873.55849  -1858212.41449  20111669.7174   20111674.0144
  21972383.908   -18660808.92049 -14507128.66949  21972385.2534   21972392.8264
  19644454.601   -15021730.46949 -11691330.55649  19644448.5394   19644455.8994
  19714844.971   -17055264.01649 -13278108.89549  19714847.2084   19714851.2144
 96  5 20 23  0 59.9950000  0  6 24 20  5 17 16  6
  21804326.924      738239.58649    574370.22249  21804329.1234   21804333.8184
  19030088.623   -11243933.13449  -7983958.75949  19030089.0774   19030093.3404
  20113438.592    -2384560.63549  -1850955.60049  20113441.3334   20113446.7214
  21942641.237   -18817110.13949 -14628921.75049  21942643.5954   21942650.5084
  19629531.257   -15100039.01049 -11752350.21949  19629546.8384   19629555.3514
  19691589.935   -17177470.80349 -13373334.95149  19691591.9874   19691595.4534
 96  5 20 23  1 29.9950000  0  6 24 20  5 17 16  6
  21806041.310      747241.91249    581384.98249  21806041.4164   21806047.3284
  19021063.648   -11291353.26749  -8020909.52149  19021065.5494   19021070.2444
  20115283.274    -2374871.97749  -1843406.03949  20115284.3054   20115291.0684
  21912944.973   -18973168.48449 -14750525.65549  21912945.5604   21912954.5484
  19614757.579   -15177740.50949 -11812896.78749  19614762.7734   19614768.6324
  19668373.215   -17299473.20549 -13468401.73749  19668376.1204   19668379.3144
 96  5 20 23  1 59.9950000  0  6 24 20  5 17 16  6
  21807754.547      756259.50949    588411.66649  21807757.9554   21807764.2344
  19012148.442   -11338207.29349  -8057419.16449  19012148.5414   19012154.3224
  20117197.141    -2364831.59149  -1835582.40949  20117195.0874   20117201.2754
  21883283.683   -19129017.67149 -14871966.54149  21883288.5354   21883296.1574
  19600084.355   -15254870.34449 -11872997.95149  19600085.7784   19600089.8534
  19645190.877   -17421300.52949 -13563332.09149  19645193.3704   19645196.9554
 96  5 20 23  2 29.9950000  0  6 24 20  5 17 16  6
  21809476.664      765316.98949    595469.40549  21809480.8934   21809487.0974
  19003342.217   -11384475.28549  -8093472.16749  19003344.3994   19003349.5584
  20119176.126    -2354403.04749  -1827456.29549  20119180.2954   20119185.8754
  21853672.790   -19284641.25549 -14993231.61849  21853675.0454   21853679.8764
  19585527.298   -15331384.47249 -11932619.31249  19585527.3864   19585531.7904
  19622044.717   -17542934.10049 -13658111.48149  19622046.5364   19622050.9774
 96  5 20 23  2 59.9940000  0  6 24 20  5 17 16  6
  21811210.415      774420.11149    602562.71449  21811213.3074   21811219.1434
  18994650.757   -11430161.95649  -8129072.18549  18994651.0714   18994655.5504
  20121236.188    -2343594.63849  -1819034.18049  20121236.6974   20121242.5544
  21824103.343   -19440020.90049 -15114306.68649  21824106.8764   21824113.4214
  19571089.565   -15407274.63849 -11991754.46249  19571081.2584   19571090.5234
  19598935.112   -17664376.47549 -13752741.89049  19598936.4894   19598941.7594
 96  5 20 23  3 29.9940000  0  6 24 20  5 17 16  6
  21812953.206      783575.60549    609696.84349  21812954.8294   21812961.0184
  18986067.393   -11475263.74349  -8164216.44849  18986068.0174   18986072.7444
  20123369.267    -2332392.09849  -1810304.97549  20123369.0264   20123374.3024
  21794581.551   -19595163.29549 -15235196.80049  21794584.7314   21794589.8774
  19556760.527   -15482541.40949 -12050403.93249  19556760.8654   19556767.2174
  19575860.460   -17785627.81349 -13847223.45149  19575863.3984   19575868.6404
 96  5 20 23  3 59.9940000  0  6 24 20  5 17 16  6
  21814705.972      792779.81049    616868.94149  21814706.3704   21814711.5384
  18977593.199   -11519781.03849  -8198905.25949  18977595.6194   18977601.6234
  20125574.507    -2320788.96749  -1801263.61049  20125576.5724   20125580.8954
  21765096.424   -19750075.79649 -15355907.78649  21765102.8894   21765112.3364
  19542562.843   -15557180.39849 -12108564.12749  19542557.7574   19542563.4374
  19552823.816   -17906691.49249 -13941558.77949  19552825.7804   19552830.5864
 96  5 20 23  4 29.9940000  0  6 24 20  5 17 16  6
  21816466.008      802045.01449    624088.58449  21816471.0784   21816476.3794
  18969237.785   -11563698.62549  -8233126.77649  18969238.9124   18969244.5694
  20127860.101    -2308792.76849  -1791915.95849  20127859.5604   20127863.2604
  21735667.305   -19904754.85049 -15476436.88549  21735669.3864   21735677.5674
  19528472.808   -15631191.65049 -12166235.18949  19528473.6984   19528478.6064
  19529819.585   -18027566.16549 -14035746.82449  19529823.7854   19529828.7644
 96  5 20 23  4 59.9940000  0  6 24 20  5 17 16  6
  21818242.273      811351.96849    631340.71249  21818241.0194   21818248.2084
  18960990.238   -11607032.37749  -8266893.33849  18960993.2154   18960998.7484
  20130207.117    -2296445.41449  -1782294.67449  20130208.9734   20130212.1494
  21706278.321   -20059218.01349 -15596797.77249  21706276.7134   21706284.6184
  19514485.379   -15704609.67549 -12223444.03349  19514501.0494   19514508.0164
  19506853.109   -18148267.48449 -14129799.80449  19506855.3514   19506860.5424
 96  5 20 23  5 29.9940000  0  6 24 20  5 17 16  6
  21820015.919      820695.54949    638621.39249  21820018.8924   21820024.6054
  18952855.671   -11649791.31849  -8300212.01449  18952856.1194   18952861.8184
  20132620.404    -2283756.81049  -1772407.47549  20132622.9554   20132627.6204
  21676920.522   -20213486.88349 -15717007.23749  21676920.1324   21676927.4924
  19500652.270   -15777452.45359 -12280204.65159  19500646.6394   19500647.5874
  19483917.596   -18268796.26449 -14223718.32949  19483919.4834   19483924.5924
 96  5 20 23  5 59.9940000  0  6 24 20  5 17 16  6
  21821798.720      830063.72349    645921.25249  21821803.6004   21821807.6264
  18944825.375   -11691978.78749  -8333085.37849  18944827.8024   18944833.4874
  20135099.988    -2270734.09549  -1762259.95249  20135101.6434   20135106.3254
  21647602.065   -20367555.93949 -15837060.99749  21647603.5684   21647608.7114
  19486873.499   -15849729.03249 -12336524.02749  19486887.1504   19486893.1964
  19461013.055   -18389157.42449 -14317506.23949  19461015.1054   19461020.8964
 96  5 20 23  6 29.9940000  0  6 24 20  5 17 16  6
  21823572.964      839360.85249    653165.75049  21823571.2964   21823576.8524
  18936891.221   -11733688.44149  -8365586.39449  18936891.2694   18936896.7394
  20137625.755    -2257476.46249  -1751929.38849  20137624.3984   20137629.5554
  21618306.527   -20521504.89649 -15957021.16749  21618308.8364   21618313.3564
  19473240.918   -15921521.52249 -12392466.21649  19473229.7784   19473231.7564
  19438126.792   -18509432.56549 -14411227.12449  19438128.0744   19438132.8934
 96  5 20 23  6 59.9940000  0  6 24 20  5 17 16  6
  21825338.522      848657.62049    660409.95249  21825340.3364   21825346.5724
  18929058.872   -11774838.40449  -8397651.31849  18929060.2974   18929066.3494
  20140206.092    -2243899.85949  -1741350.26149  20140208.9784   20140213.0834
  21589053.699   -20675248.03649 -16076820.96249  21589051.3044   21589057.7524
  19459675.043   -15992743.49749 -12447963.86049  19459675.1544   19459680.5184
  19415271.510   -18629537.60349 -14504815.46249  19415272.4624   19415277.3344
 96  5 20 23  7 29.9940000  0  6 24 20  5 17 16  6
  21827101.002      857944.71449    667646.62749  21827107.6864   21827113.5064
  18921336.829   -11815425.23849  -8429277.44349  18921337.3604   18921342.9534
  20142858.281    -2229984.38249  -1730507.07549  20142856.7304   20142861.1414
  21559831.888   -20828786.67049 -16196461.42249  21559833.3354   21559840.6544
  19446246.585   -16063386.88749 -12503010.73949  19446236.6224   19446235.1994
  19392449.049   -18749475.99449 -14598273.94649  19392449.0994   19392453.9944
 96  5 20 23  7 59.9940000  0  6 24 20  5 17 16  6
  21828866.242      867200.45949    674858.87949  21828869.4884   21828874.9124
  18913718.971   -11855460.12149  -8460473.47349  18913718.7964   18913724.8414
  20145564.283    -2215737.87749  -1719405.94749  20145567.6304   20145571.2674
  21530651.032   -20982123.96649 -16315944.96849  21530653.8354   21530661.8304
  19432886.652   -16133454.46649 -12557608.79449  19432899.3984   19432902.7694
  19369654.662   -18869255.29649 -14691608.46749  19369656.3724   19369660.1924
 96  5 20 23  8 29.9940000  0  6 24 20  5 17 16  6
  21830618.109      876399.22949    682026.73349  21830620.8904   21830625.1834
  18906192.697   -11894977.27949  -8491266.07049  18906198.5444   18906204.7084
  20148333.535    -2201201.57049  -1708079.00349  20148334.3724   20148338.5974
  21501502.798   -21135299.43549 -16435302.44449  21501506.0664   21501513.3364
  19419669.546   -16202981.17249 -12611785.43249  19419668.9324   19419673.1254
  19346884.380   -18988910.49149 -14784846.27349  19346886.1274   19346889.7324
 96  5 20 23  8 59.9940000  0  6 24 20  5 17 16  6
  21832359.703      885574.53949    689176.32149  21832365.5454   21832371.8184
  18898779.458   -11933953.74549  -8521637.38249  18898782.1564   18898787.2984
  20151162.660    -2186342.09849  -1696500.23849  20151162.0094   20151166.4914
  21472390.598   -21288299.56049 -16554523.33349  21472390.5114   21472398.7094
  19406541.325   -16271957.39949 -12665533.16549  19406542.3394   19406547.1084
  19324143.574   -19108418.93449 -14877969.71749  19324145.0044   19324147.3954
 96  5 20 23  9 29.9940000  0  6 24 20  5 17 16  6
  21834106.877      894719.98949    696302.59849  21834106.2344   21834110.9174
  18891461.188   -11972428.32849  -8551617.57249  18891460.4064   18891465.0264
  20154044.880    -2171177.86149  -1684684.02749  20154047.1394   20154051.8994
  21443298.756   -21441151.08949 -16673628.39749  21443303.1704   21443311.5724
  19393525.547   -16340402.66149 -12718867.11949  19393517.3984   19393521.9064
  19301426.750   -19227797.48649 -14970991.94549  19301427.7544   19301430.9554
 96  5 20 23  9 59.9940000  0  6 24 20  5 17 16  6
  21835823.769      903767.77249    703352.77649  21835827.9994   21835834.3804
  18884218.435   -12010488.32749  -8581274.73749  18884217.8424   18884222.7444
  20156974.004    -2155797.38049  -1672699.30349  20156973.3924   20156978.3864
  21414228.188   -21593938.56749 -16792683.56649  21414230.5494   21414236.8004
  19380580.139   -16408393.06249 -12771846.69349  19380579.0194   19380584.8914
  19278718.434   -19347127.09249 -15063976.03449  19278720.3654   19278724.2024
 96  5 20 23 10 29.9940000  0  6 24 20  5 17 16  6
  21837552.090      912841.14849    710422.89549  21837554.9554   21837559.9484
  18877077.024   -12048015.33849  -8610516.59449  18877077.3774   18877082.5484
  20159963.631    -2140084.25649  -1660455.36749  20159963.3264   20159968.1954
  21385184.783   -21746553.57349 -16911604.32249  21385188.2464   21385194.5834
  19367744.615   -16475802.75049 -12824373.70149  19367749.0254   19367756.7324
  19256042.750   -19466293.05849 -15156832.62749  19256044.2494   19256047.5294
 96  5 20 23 10 59.9940000  0  6 24 20  5 17 16  6
  21839259.983      921807.82749    717409.89049  21839259.8784   21839265.3804
  18870014.414   -12085119.90649  -8639429.25349  18870016.5994   18870021.9114
  20162990.338    -2124158.80949  -1648045.94849  20162993.4964   20162999.9794
  21356149.350   -21899116.94149 -17030484.84949  21356155.7664   21356162.7624
  19355007.385   -16542732.10449 -12876526.44149  19355013.3384   19355020.0644
  19233375.445   -19585407.29049 -15249648.88749  19233377.0024   19233380.4904
 96  5 20 23 11 29.9940000  0  6 24 20  5 17 16  6
  21840954.296      930715.32649    724350.75749  21840956.1574   21840960.1164
  18863044.872   -12121740.46349  -8667964.77449  18863047.7434   18863052.9014
  20166069.090    -2107980.55949  -1635439.55549  20166072.9324   20166079.3454
  21327146.840   -22051555.63949 -17149268.22949  21327149.5644   21327153.8224
  19342368.364   -16609104.92449 -12928245.53749  19342378.8444   19342388.9494
  19210728.796   -19704412.10949 -15342379.90949  19210731.2544   19210735.2694
 96  5 20 23 11 59.9940000  0  6 24 20  5 17 16  6
  21842648.844      939633.13549    731299.67449  21842653.4964   21842657.9064
  18856189.845   -12157777.54349  -8696045.64549  18856189.8524   18856195.5654
  20169216.856    -2091471.12849  -1622575.11349  20169215.0354   20169220.6794
  21298181.951   -22203769.34049 -17267876.27149  21298183.1454   21298189.3574
  19329875.572   -16674839.29949 -12979467.14849  19329875.6694   19329880.9234
  19188122.073   -19823213.07749 -15434952.08149  19188123.7654   19188128.7204
 96  5 20 23 12 29.9940000  0  6 24 20  5 17 16  6
  21844335.955      948478.72949    738192.31249  21844336.0034   21844342.5924
  18849428.193   -12193298.50449  -8723724.33149  18849431.0324   18849436.2424
  20172402.113    -2074720.06849  -1609522.39349  20172403.5224   20172408.1384
  21269245.301   -22355818.26749 -17386355.92949  21269248.8834   21269255.9184
  19317468.123   -16740017.22649 -13030255.08949  19317473.0664   19317479.0914
  19165543.239   -19941868.86649 -15527411.14649  19165544.9194   19165549.5634
 96  5 20 23 12 59.9940000  0  6 24 20  5 17 16  6
  21846037.891      957430.15749    745167.43449  21846039.3094   21846045.1144
  18842797.919   -12228140.60149  -8750874.03949  18842800.9804   18842805.4864
  20175663.701    -2057576.89449  -1596164.13349  20175666.0644   20175669.9934
  21240377.087   -22507525.39149 -17504569.21849  21240380.1854   21240387.3644
  19305207.948   -16804482.23549 -13080487.57849  19305204.8884   19305212.2504
  19143022.794   -20060209.03849 -15619624.26249  19143025.1654   19143029.3554
 96  5 20 23 13 29.9940000  0  6 24 20  5 17 16  6
  21847716.878      966268.07349    752054.08349  21847721.4334   21847726.7544
  18836251.826   -12262550.66249  -8777687.09849  18836252.3764   18836257.2974
  20178955.067    -2040276.38849  -1582683.26949  20178957.6874   20178962.2634
  21211527.421   -22659113.53149 -17622689.81849  21211534.2364   21211540.9384
  19293009.200   -16868489.77349 -13130363.59449  19293021.6774   19293031.5984
  19120520.056   -20178466.26449 -15711772.75049  19120521.7984   19120525.9014
 96  5 20 23 13 59.9930000  0  6 24 20  5 17 16  6
  21849415.384      975170.42749    758990.96649  21849415.2114   21849420.4844
  18829816.346   -12296359.95849  -8804032.02349  18829818.5054   18829823.8214
  20182311.736    -2022641.27249  -1568941.65749  20182313.2394   20182318.1054
  21182739.224   -22810419.54049 -17740590.56349  21182741.0774   21182748.2214
  19280956.670   -16931888.51049 -13179765.25149  19280957.9254   19280965.6664
  19098066.270   -20296458.19349 -15803714.51449  19098068.4914   19098072.6524
 96  5 20 23 14 29.9930000  0  6 24 20  5 17 16  6
  21851097.370      984043.72549    765905.19749  21851103.4624   21851108.2494
  18823478.670   -12329667.15049  -8829985.69949  18823480.8544   18823485.5144
  20185713.784    -2004765.23249  -1555012.31849  20185714.3614   20185719.6534
  21153977.201   -22961566.59349 -17858367.44449  21153978.5184   21153985.1384
  19268993.621   -16994776.87249 -13228769.20049  19268994.6294   19268997.7304
  19075642.514   -20414297.02149 -15895536.97049  19075644.8654   19075648.9804
 96  5 20 23 14 59.9930000  0  6 24 20  5 17 16  6
  21852793.940      992941.92249    772838.83849  21852796.9454   21852801.3804
  18817245.901   -12362426.50149  -8855512.49349  18817247.2424   18817252.5134
  20189175.412    -1986577.19049  -1540839.85449  20189175.1584   20189180.9214
  21125254.733   -23112497.36049 -17975975.81049  21125257.5054   21125264.5484
  19257124.885   -17057100.03749 -13277332.70149  19257132.7604   19257139.2484
  19053258.700   -20531934.43149 -15987202.47449  19053259.4484   19053263.3194
 96  5 20 23 15 29.9930000  0  6 24 20  5 17 16  6
  21854493.879     1001881.37349    779804.62449  21854500.0364   21854503.6224
  18811124.679   -12394594.20449  -8880578.26149  18811125.9934   18811130.9494
  20192707.008    -1968014.68149  -1526375.60649  20192707.8444   20192713.5394
  21096585.235   -23263169.30849 -18093382.48449  21096585.7584   21096593.4284
  19245387.038   -17118804.93649 -13325414.42049  19245391.4274   19245395.8584
  19030918.634   -20649323.02949 -16078674.09349  19030920.8774   19030925.1144
 96  5 20 23 15 59.9930000  0  6 24 20  5 17 16  6
  21856191.534     1010770.67349    786731.34549  21856191.7544   21856195.0554
  18805101.187   -12426243.71149  -8905240.24349  18805103.1864   18805108.5914
  20196295.542    -1949155.12049  -1511679.89449  20196297.5184   20196302.4774
  21067946.241   -23413664.27249 -18210651.24549  21067947.6504   21067954.8334
  19233757.158   -17179949.27049 -13373059.32949  19233756.7294   19233761.5924
  19008613.355   -20766540.29149 -16170012.21849  19008615.1564   19008618.8484
 96  5 20 23 16 29.9930000  0  6 24 20  5 17 16  6
  21857871.799     1019630.69349    793635.23349  21857875.7494   21857882.4754
  18799182.284   -12457347.96749  -8929477.33749  18799183.9844   18799189.5834
  20199944.028    -1929980.36449  -1496738.57649  20199946.0964   20199951.4414
  21039347.179   -23563944.49749 -18327752.65149  21039349.2664   21039354.1334
  19222233.566   -17240494.15049 -13420237.19349  19222234.6314   19222238.8744
  18986341.970   -20883574.01649 -16261207.30849  18986344.5774   18986348.1494
 96  5 20 23 16 59.9930000  0  6 24 20  5 17 16  6
  21859553.273     1028448.32449    800506.09149  21859554.0364   21859559.7964
  18793360.799   -12487933.13849  -8953309.94149  18793364.1694   18793369.6394
  20203649.988    -1910508.92349  -1481566.07349  20203651.3364   20203656.9774
  21010789.449   -23714014.85949 -18444690.53149  21010790.5364   21010794.2604
  19210829.999   -17300454.71549 -13466959.74049  19210826.5944   19210830.7194
  18964103.208   -21000441.60049 -16352272.94049  18964104.7684   18964109.2254
 96  5 20 23 17 29.9930000  0  6 24 20  5 17 16  6
  21861203.992     1037149.85349    807286.47049  21861208.9494   21861215.1354
  18787630.113   -12518060.45749  -8976785.80149  18787631.2334   18787636.4104
  20207397.360    -1890821.41449  -1466225.20949  20207398.2514   20207403.2324
  20982257.652   -23863949.31349 -18561522.52459  20982259.9424   20982263.1094
  19199516.096   -17359893.95349 -13513276.04449  19199514.1594   19199520.3024
  18941885.353   -21117200.11949 -16443253.58849  18941886.9734   18941891.5014
 96  5 20 23 17 59.9930000  0  6 24 20  5 17 16  6
  21862862.295     1045861.42949    814074.70349  21862867.3374   21862874.0614
  18782003.144   -12547624.98849  -8999823.13649  18782004.4324   18782009.9844
  20211203.398    -1870814.07949  -1450635.12749  20211206.3144   20211209.8034
  20953774.079   -24013638.30549 -18678163.22759  20953775.6844   20953779.8694
  19188317.633   -17418724.12349 -13559117.74549  19188318.8634   19188326.4954
  18919709.277   -21233737.86949 -16534062.22349  18919710.3014   18919714.8644
 96  5 20 23 18 29.9930000  0  6 24 20  5 17 16  6
  21864511.551     1054509.93649    820813.77849  21864513.3654   21864519.7774
  18776467.709   -12576710.03449  -9022486.82949  18776470.0394   18776475.1484
  20215057.666    -1850574.55649  -1434864.13849  20215057.4064   20215061.0084
  20925321.949   -24163163.56449 -18794676.32849  20925322.1364   20925325.5384
  19177218.881   -17477041.07749 -13604559.53549  19177222.0584   19177227.2384
  18897559.184   -21350125.90549 -16624754.19249  18897562.3524   18897566.8574
 96  5 20 23 18 59.9930000  0  6 24 20  5 17 16  6
  21866149.249     1063114.62449    827518.67949  21866149.8924   21866158.1754
  18771030.326   -12605295.56049  -9044761.29249  18771030.9064   18771035.9734
  20218956.146    -1830086.70549  -1418899.64949  20218955.6954   20218959.9334
  20896900.227   -24312502.83649 -18911044.54749  20896904.1334   20896906.9674
  19166226.368   -17534821.16249 -13649583.00149  19166228.0404   19166234.5514
  18875452.270   -21466313.24949 -16715289.78049  18875452.9794   18875457.3914
 96  5 20 23 19 29.9930000  0  6 24 20  5 17 16  6
  21867795.154     1071776.13849    834267.85849  21867799.3434   21867805.9844
  18765704.754   -12633279.94349  -9066567.31449  18765705.7764   18765711.0394
  20222919.088    -1809260.34349  -1402671.35649  20222919.5494   20222923.1394
  20868537.112   -24461563.08749 -19027195.31049  20868536.4504   20868542.9304
  19155352.459   -17591968.93849 -13694113.73049  19155354.3484   19155357.6964
  18853398.669   -21582195.19249 -16805587.39649  18853400.6304   18853405.9284
 96  5 20 23 19 59.9930000  0  6 24 20  5 17 16  6
  21869439.919     1080442.00249    841020.43449  21869448.0104   21869455.0124
  18760480.331   -12660733.35649  -9087959.59549  18760481.2934   18760487.3274
  20226927.615    -1788169.01049  -1386236.59449  20226931.4564   20226936.7314
  20840210.391   -24610416.13549 -19143184.67249  20840209.6994   20840215.1744
  19144588.091   -17648551.68149 -13738204.14549  19144585.4624   19144589.4154
  18831389.358   -21697852.60649 -16895710.06049  18831391.1964   18831397.1344
 96  5 20 23 20 29.9930000  0  6 24 20  5 17 16  6
  21871086.480     1089063.64649    847738.54949  21871087.1534   21871094.3974
  18755348.696   -12687702.27749  -9108974.36849  18755349.3394   18755355.2074
  20230980.772    -1766878.69149  -1369646.78549  20230982.0804   20230988.2744
  20811911.351   -24759112.79849 -19259052.16749  20811915.6174   20811920.5544
  19133921.958   -17704597.84849 -13781876.44249  19133919.1644   19133924.7824
  18809411.582   -21813345.07349 -16985704.18349  18809414.3774   18809419.4084
 96  5 20 23 20 59.9930000  0  6 24 20  5 17 16  6
  21872711.903     1097613.30249    854400.53749  21872715.9844   21872722.6604
  18750302.865   -12714222.90549  -9129639.80449  18750302.4494   18750308.4734
  20235064.380    -1745415.70849  -1352922.41749  20235067.0464   20235073.1334
  20783645.918   -24907684.18249 -19374822.03849  20783645.3634   20783649.4964
  19123350.737   -17760131.83449 -13825149.65449  19123352.7364   19123355.2404
  18787459.271   -21928708.17249 -17075597.51149  18787461.3954   18787466.4074
 96  5 20 23 21 29.9930000  0  6 24 20  5 17 16  6
  21874348.059     1106191.17749    861084.57249  21874347.2244   21874354.4514
  18745358.195   -12740198.84849  -9149880.80849  18745359.2614   18745365.2504
  20239203.926    -1723669.80649  -1335977.58749  20239204.8604   20239211.7654
  20755411.116   -25056042.83049 -19490426.10849  20755412.2844   20755419.1584
  19112897.638   -17815057.17249 -13867948.59849  19112898.2694   19112904.2754
  18765545.560   -22043866.08849 -17165330.95549  18765547.6404   18765552.4384
 96  5 20 23 21 59.9930000  0  6 24 20  5 17 16  6
  21876001.230     1114912.48349    867880.41049  21876006.6224   21876015.4024
  18740541.439   -12765515.55549  -9169608.13349  18740542.3794   18740547.6274
  20243420.986    -1701506.92349  -1318707.85849  20243423.2844   20243428.9554
  20727243.022   -25204052.79149 -19605758.48649  20727246.9204   20727254.5054
  19102584.507   -17869249.14549 -13910176.06949  19102587.2884   19102591.8044
  18743694.602   -22158700.17149 -17254812.05249  18743695.3354   18743700.6884
 96  5 20 23 22 29.9930000  0  6 24 20  5 17 16  6
  21877657.668     1123598.88149    874648.98049  21877656.8214   21877659.7254
  18735815.710   -12790338.59449  -9188950.78949  18735818.2564   18735823.3644
  20247686.438    -1679083.10149  -1301234.78549  20247691.0214   20247696.5174
  20699119.538   -25351860.47949 -19720933.28449  20699119.0104   20699125.1924
  19092379.381   -17922871.54549 -13951959.73149  19092381.5664   19092389.0374
  18721875.083   -22273356.73049 -17344154.82449  18721877.2164   18721882.0834
 96  5 20 23 22 59.9930000  0  6 24 20  5 17 16  6
  21879302.450     1132224.93949    881370.56949  21879299.5684   21879310.7044
  18731183.486   -12814686.19149  -9207922.96649  18731184.8654   18731190.4024
  20252008.343    -1656404.62949  -1283563.28749  20252007.4384   20252012.1784
  20671027.561   -25499480.29949 -19835961.69349  20671029.0514   20671035.4364
  19082280.732   -17975955.53849 -13993323.88449  19082281.8284   19082287.1294
  18700089.929   -22387844.83849 -17433366.31249  18700090.9224   18700095.2174
 96  5 20 23 23 29.9930000  0  6 24 20  5 17 16  6
  21880918.742     1140795.79149    888049.12059  21880925.8864   21880943.4104
  18726643.558   -12838537.61249  -9226508.50149  18726646.3564   18726651.7404
  20256377.302    -1633457.99449  -1265682.85449  20256374.1444   20256379.0444
  20642975.323   -25646890.82349 -19950826.98649  20642977.6184   20642983.4574
  19072278.285   -18028490.36549 -14034260.09149  19072284.1434   19072289.6164
  18678337.023   -22502152.98149 -17522437.58249  18678338.4994   18678342.6194
 96  5 20 23 23 59.9930000  0  6 24 20  5 17 16  6
  21882557.419     1149295.03559                                  21882546.3824
  18722201.513   -12861900.31149  -9244713.22349  18722200.6194   18722206.0284
  20260777.961    -1610278.56849  -1247621.01249  20260784.8604   20260788.9934
  20614964.992   -25794098.06849 -20065533.89849  20614965.2364   20614971.4644
  19062382.788   -18080499.22349 -14074786.49749  19062388.0454   19062393.4234
  18656618.580   -22616284.07349 -17611370.88749  18656619.9874   18656624.3694
 96  5 20 23 24 29.9920000  0  5 20  5 17 16  6
  18717854.296   -12884733.86649  -9262505.60949  18717855.6534   18717861.6824
  20265233.160    -1586858.83849  -1229371.93249  20265239.8324   20265246.5804
  20586996.307   -25941075.02749 -20180061.38749  20586996.5044   20587002.3034
  19052593.821   -18131956.05649 -14114882.74249  19052595.2434   19052599.9764
  18634942.809   -22730183.77249 -17700123.88749  18634945.2744   18634950.5804
 96  5 20 23 24 59.9920000  0  5 20  5 17 16  6
  18713615.843   -12907012.91849  -9279865.93649  18713616.1454   18713621.6514
  20269742.009    -1563175.79549  -1210917.65149  20269746.4694   20269753.0354
  20559066.102   -26087815.89049 -20294404.89149  20559072.6404   20559078.8274
  19042910.747   -18182842.13449 -14154534.20049  19042912.2654   19042917.5294
  18613315.276   -22843836.26249 -17788684.26049  18613317.9134   18613323.1264
 96  5 20 23 25 29.9920000  0  6 24 20  5 17 16  6
  21887389.813        5113.18419
  18709486.872   -12928686.23649  -9296754.24849  18709491.6564   18709496.7754
  20274313.139    -1539187.09349  -1192225.23149  20274310.8004   20274318.3804
  20531204.689   -26234265.47149 -20408521.39649  20531204.3594   20531210.6564
  19033344.721   -18233105.67949 -14193700.60449  19033347.0834   19033352.7144
  18591748.484   -22957173.11449 -17876998.67649  18591750.4464   18591755.6774
 96  5 20 23 25 59.9920000  0  6 24 20  5 17 16  6
  21888990.790       13519.627 9
  18705452.640   -12949916.26949  -9313297.14449  18705451.9094   18705457.0064
  20278902.504    -1515059.22449  -1173424.37049  20278902.6084   20278908.2124
  20503357.096   -26380580.15449 -20522532.79549  20503360.2044   20503367.0534
  19023866.917   -18282907.92949 -14232507.57349  19023870.1294   19023874.7714
  18570215.693   -23070334.53949 -17965176.40949  18570216.9194   18570221.7624
 96  5 20 23 26 29.9920000  0  6 24 20  5 17 16  6
  21890580.255       21881.021 9
  18701500.797   -12970661.82249  -9329462.51849  18701503.7194   18701509.4784
  20283529.118    -1490720.94849  -1154459.53249  20283534.6904   20283539.7954
  20475547.896   -26526704.26949 -20636395.67949  20475552.7794   20475560.0804
  19014490.449   -18332192.77949 -14270911.34649  19014491.8084   19014496.5974
  18548725.447   -23183267.99649 -18053176.49749  18548726.3724   18548730.9754
 96  5 20 23 26 59.9920000  0  6 24 20  5 17 16  6
  21892196.381       30337.672 9
  18697673.148   -12990787.39649  -9345144.79849  18697674.4194   18697679.9434
  20288233.940    -1466015.25349  -1135208.42649  20288236.0324   20288240.6074
  20447809.259   -26672498.81249 -20750001.76949  20447810.1584   20447816.8674
  19005235.694   -18380812.67749 -14308796.96749  19005239.3984   19005245.3204
  18527300.413   -23295844.66749 -18140898.56249  18527303.6264   18527308.2104
 96  5 20 23 27 29.9920000  0  6 24 20  5 17 16  6
  21893787.522       38715.695 9
  18693928.461   -13010465.86549  -9360478.69849  18693929.6074   18693934.6984
  20292973.826    -1441115.78249  -1115806.31049  20292975.2524   20292978.5244
  20420096.593   -26818128.24649 -20863479.20449  20420097.8574   20420104.7844
  18996085.426   -18428922.84049 -14346285.39049  18996085.0684   18996090.4394
  18505914.893   -23408236.36049 -18228476.48849  18505916.4144   18505920.7854
 96  5 20 23 27 59.9920000  0  6 24 20  5 17 16  6
  21895398.815       47207.68259     15844.72059  21895399.1954   21895407.7584
  18690301.089   -13029518.18849  -9375324.67249  18690304.2154   18690309.1584
  20297786.849    -1415830.05449  -1096103.22149  20297787.4944   20297791.9294
  20392443.363   -26963409.77749 -20976685.56349  20392451.0414   20392458.6564
  18987064.221   -18476322.39949 -14383220.10349  18987064.8904   18987071.2414
  18484594.774   -23520270.70949 -18315775.97149  18484597.0534   18484601.8354
 96  5 20 23 28 29.9920000  0  6 24 20  5 17 16  6
  21896993.161       55600.315 9     22384.38459                  21897002.6234
  18686754.746   -13048172.04149  -9389860.16049  18686754.9424   18686759.9464
  20302628.590    -1390379.21549  -1076271.47749  20302630.1974   20302637.0584
  20364829.431   -27108573.04349 -21089799.73449  20364828.1404   20364834.0824
  18978139.285   -18523227.73749 -14419769.77349  18978139.3334   18978144.7114
  18463298.795   -23632182.50049 -18402979.94549  18463300.5314   18463305.6294
 96  5 20 23 28 59.9920000  0  6 24 20  5 17 16  6
  21898627.115       64166.37959     29059.24849  21898628.3014   21898632.6554
  18683331.362   -13066151.19449  -9403869.89549  18683333.0084   18683338.4914
  20307554.836    -1364494.47349  -1056101.60449  20307555.7994   20307561.6464
  20337280.406   -27253334.04749 -21202600.45649  20337281.4974   20337287.2594
  18969359.525   -18569351.29649 -14455710.20949  18969362.1764   18969366.1694
  18442077.611   -23743692.73549 -18489871.02349  18442081.0584   18442085.5594
 96  5 20 23 29 29.9920000  0  6 24 20  5 17 16  6
  21900245.806       72689.42159     35700.56249  21900249.3944   21900254.1274
  18679996.658   -13083671.05149  -9417521.75349  18679999.4384   18680004.8544
  20312517.108    -1338401.22849  -1035769.27249  20312519.9764   20312527.7404
  20309768.674   -27397895.02549 -21315245.33949  20309772.0004   20309778.2854
  18960690.524   -18614917.27549 -14491216.16049  18960690.6364   18960695.4094
  18420893.916   -23855020.21449 -18576619.68549  18420895.7394   18420900.5564
 96  5 20 23 29 59.9920000  0  6 24 20  5 17 16  6
  21901853.541       81125.94949     42274.45749  21901854.7324   21901860.1114
  18676743.743   -13100761.82749  -9430839.25949  18676746.9484   18676752.5154
  20317511.225    -1312143.48649  -1015308.76249  20317516.3664   20317523.1854
  20282295.133   -27542278.93749 -21427752.23649  20282297.1104   20282302.9144
  18952112.028   -18659982.09949 -14526331.59849  18952115.1314   18952120.4734
  18399740.615   -23966187.67949 -18663243.66349  18399741.6784   18399746.2104
 96  5 20 23 30 29.9920000  0  6 24 20  5 17 16  6
  21903439.511       89489.10749     48791.14949  21903446.2364   21903452.1124
  18673586.390   -13117375.07549  -9443784.66949  18673585.5874   18673590.7684
  20322549.826    -1285697.14049   -994701.30249  20322549.6684   20322556.4204
  20254860.889   -27686433.71349 -21540080.60549  20254865.5414   20254870.7694
  18943640.476   -18704525.61149 -14561040.81249  18943639.6514   18943643.6394
  18378624.477   -24077141.61749 -18749701.27149  18378627.7024   18378632.6464
 96  5 20 23 30 59.9920000  0  6 24 20  5 17 16  6
  21905018.009       97759.62149     55235.66049  21905020.5694   21905026.3564
  18670516.182   -13133492.99049  -9456344.10549  18670518.6654   18670524.0694
  20327617.675    -1259072.28649   -973954.72649  20327616.1994   20327622.0304
  20227476.644   -27830356.65449 -21652228.32649  20227476.6544   20227482.8294
  18935256.158   -18748556.78449 -14595350.82149  18935259.6624   18935266.4584
  18357554.999   -24187877.81549 -18835989.21849  18357555.4814   18357560.0694
 96  5 20 23 31 29.9920000  0  6 24 20  5 17 16  6
  21906565.694      105907.78249     61584.83649  21906571.6054   21906577.0864
  18667541.626   -13149135.76249  -9468533.29149  18667542.2714   18667547.5444
  20332706.234    -1232311.44149   -953102.19149  20332709.9204   20332715.1784
  20200124.755   -27974093.35949 -21764230.89249  20200126.2964   20200131.3424
  18926971.425   -18792118.94649 -14629295.33449  18926972.2284   18926975.6384
  18336519.155   -24298414.28149 -18922121.50649  18336521.2294   18336525.2954
 96  5 20 23 31 59.9920000  0  6 24 20  5 17 16  6
  21908100.414      113971.21749     67867.98449  21908104.6854   21908111.3214
  18664658.660   -13164281.23649  -9480334.98949  18664660.0334   18664664.9194
  20337826.879    -1205385.65849   -932121.12549  20337832.2714   20337838.3754
  20172808.037   -28117635.76149 -21876082.08449  20172810.5584   20172815.5204
  18918772.349   -18835172.36349 -14662843.42949  18918777.7714   18918783.8894
  18315530.718   -24408708.30149 -19008064.88449  18315532.9014   18315537.0074
 96  5 20 23 32 29.9920000  0  6 24 20  5 17 16  6
  21909628.611      121977.38349     74106.52049  21909630.0084   21909633.8964
  18661870.147   -13178932.39749  -9491751.48949  18661871.5994   18661875.9474
  20342989.612    -1178271.14449   -910992.99049  20342992.4954   20342998.8144
  20145528.093   -28261001.89849 -21987795.92249  20145529.2844   20145533.8994
  18910684.625   -18877691.23849 -14695975.00949  18910686.1344   18910692.0694
  18294589.379   -24518759.97249 -19093819.40949  18294590.7044   18294594.9224
 96  5 20 23 32 59.9920000  0  7 24 20 23  5 17 16  6
  21911148.828      129982.81549     80344.48449  21911151.5044   21911155.6384
  18659178.155   -13193069.84449  -9502767.69849  18659181.2734   18659186.7054
  22337921.053    -1289363.26259   -971693.98259  22337925.3964   22337937.2454
  20348196.332    -1150932.03249   -889689.84449  20348194.5894   20348202.1254
  20118284.624   -28404167.06449 -22099353.15249  20118286.3274   20118289.2134
  18902699.064   -18919631.19249 -14728655.46849  18902703.9374   18902711.4674
  18273699.014   -24628538.03649 -19179360.73549  18273701.0524   18273704.4454
 96  5 20 23 33 29.9920000  0  7 24 20 23  5 17 16  6
  21912662.928      137946.64649     86550.00549  21912666.1104   21912675.2744
  18656569.926   -13206779.82049  -9513450.81349  18656572.2934   18656577.4504
  22303400.589    -1470741.25559  -1113027.34759  22303409.3914   22303420.3964
  20353425.634    -1123414.52549   -868247.69149  20353432.1584   20353439.1484
  20091069.594   -28547186.92149 -22210797.15049  20091069.6654   20091074.5024
  18894822.768   -18961034.68249 -14760917.89849  18894825.4144   18894832.2274
  18252854.001   -24738082.30449 -19264719.89849  18252855.5794   18252858.5624
 96  5 20 23 33 59.9920000  0  7 24 20 23  5 17 16  6
  21914174.029      145876.75049     92729.27649  21914176.4094   21914183.0704
  18654041.748   -13220069.36049  -9523806.33149  18654043.5284   18654048.8744
  22268888.724    -1652131.50659  -1254370.31859  22268890.5234   22268901.0754
  20358705.403    -1095700.02249   -846652.05649  20358704.9784   20358712.1424
  20063882.591   -28690034.18949 -22322106.65549  20063885.4864   20063892.8774
  18887054.963   -19001884.00249 -14792748.51149  18887051.6364   18887059.9664
  18232052.958   -24847388.11549 -19349893.23849  18232055.6294   18232059.0184
 96  5 20 23 34 29.9920000  0  7 24 20 23  5 17 16  6
  21915679.788      153780.41749     98887.97549  21915678.5534   21915688.0144
  18651598.391   -13232921.23649  -9533820.79549  18651598.2274   18651603.5114
  22234380.604    -1833518.15349  -1395710.44249  22234371.5714   22234386.7724
  20364018.711    -1067777.81549   -824894.60149  20364019.4994   20364024.9764
  20036740.110   -28832663.24949 -22433246.12749  20036744.2054   20036752.1274
  18879385.373   -19042172.58649 -14824142.22149  18879386.5814   18879390.6584
  18211300.632   -24956438.89449 -19434867.85249  18211303.4594   18211307.9124
 96  5 20 23 34 59.9910000  0  7 24 20 23  5 17 16  6
  21917150.924      161554.49549    104945.65549  21917158.0654   21917165.8304
  18649216.547   -13245426.27649  -9543564.98949  18649218.8974   18649224.3174
  22199835.090    -2014977.40059  -1537107.10059  22199844.1724   22199859.4924
  20369351.515    -1039748.33349   -803053.52049  20369353.1624   20369358.2794
  20009632.615   -28975133.77149 -22544262.05949  20009633.7524   20009639.3534
  18871810.263   -19081998.39649 -14855175.29549  18871808.6744   18871813.6134
  18190585.146   -25065307.57249 -19519700.57549  18190586.5724   18190590.8034
 96  5 20 23 35 29.9910000  0  7 24 20 23  5 17 16  6
  21918618.637      169271.56459    110958.93259  21918625.9554   21918634.4014
  18646922.097   -13257493.80649  -9552968.28549  18646922.3484   18646927.8334
  22165301.817    -2196426.33149  -1678495.82149  22165318.7544   22165325.7374
  20374723.964    -1011519.06049   -781056.76349  20374725.4154   20374730.7864
  19982564.674   -29117367.23049 -22655093.28749  19982567.0144   19982572.4634
  18864335.042   -19121277.44049 -14885782.32549  18864334.5884   18864338.5704
  18169914.984   -25173918.81549 -19604332.70549  18169917.8584   18169922.8774
 96  5 20 23 35 59.9910000  0  6 20 23  5 17 16  6
  18644699.797   -13269149.67349  -9562050.78449  18644703.6114   18644709.4584
  22130787.720    -2377894.56749  -1819899.54249  22130788.1014   22130794.0204
  20380126.773     -983140.51549   -758943.69549  20380126.7574   20380131.6254
  19955538.483   -29259394.19149 -22765763.59349  19955539.9504   19955546.6074
  18856950.835   -19160069.94849 -14916010.20249  18856952.3364   18856958.5044
  18149287.409   -25282331.52549 -19688810.14049  18149288.7614   18149293.0244
 96  5 20 23 36 29.9910000  0  6 20 23  5 17 16  6
  18642568.576   -13280360.19549  -9570786.26949  18642569.5864   18642576.4144
  22096268.991    -2559336.22549  -1961282.51249  22096256.8634   22096266.6624
  20385552.259     -954600.78049   -736705.02049  20385557.7864   20385562.3984
  19928552.865   -29401202.26249 -22876263.35349  19928554.3604   19928561.1754
  18849664.749   -19198360.99249 -14945847.34449  18849665.5714   18849670.5594
  18128696.825   -25390531.04749 -19773121.45449  18128698.3054   18128703.3294
 96  5 20 23 36 59.9910000  0  7 24 20 23  5 17 16  6
  21922904.954        3300.77919
  18640506.649   -13291183.76449  -9579220.22349  18640510.4634   18640516.8374
  22061726.219    -2740823.34249  -2102700.92449  22061719.0324   22061726.7954
  20391003.648     -925970.20449   -714395.54349  20391005.7154   20391010.5824
  19901592.443   -29542885.36749 -22986665.74149  19901592.4374   19901600.0384
  18842462.315   -19236209.13449 -14975339.41649  18842463.1074   18842468.7464
  18108134.801   -25498586.96449 -19857320.87149  18108136.5164   18108141.0474
 96  5 20 23 37 29.9910000  0  7 24 20 23  5 17 16  6
  21924300.308       10615.909 9
  18638538.241   -13301543.09949  -9587292.43149  18638539.6554   18638545.9844
  22027195.840    -2922291.27349  -2244104.40549  22027188.0894   22027195.2324
  20396484.370     -897189.81049   -691969.32349  20396481.5834   20396488.2534
  19874666.815   -29684379.85749 -23096921.14849  19874666.2054   19874673.5634
  18835354.505   -19273555.60849 -15004440.55749  18835356.2714   18835363.6544
  18087609.275   -25606446.26849 -19941367.08549  18087611.5824   18087615.9224
 96  5 20 23 37 59.9910000  0  7 24 20 23  5 17 16  6
  21925682.923       17886.09359     12939.11959  21925688.2094   21925696.0914
  18636658.810   -13311421.69249  -9594990.04649  18636659.3364   18636665.7924
  21992663.496    -3103723.10249  -2385479.70749  21992665.4304   21992672.2144
  20401989.023     -868251.33849   -669419.92049  20401988.7474   20401993.2914
  19847776.160   -29825659.69749 -23207009.29649  19847781.9504   19847788.9094
  18828349.074   -19310387.22949 -15033140.53249  18828348.3024   18828355.0514
  18067126.057   -25714086.61949 -20025242.67749  18067128.1074   18067132.3184
 96  5 20 23 38 29.9910000  0  7 24 20 23  5 17 16  6
  21927083.978       25198.89349     18637.34659  21927080.3884   21927085.0964
  18634882.511   -13320745.72449  -9602255.54849  18634885.6294   18634890.9734
  21958163.256    -3285040.85049  -2526766.19749  21958161.5674   21958165.9764
  20407540.456     -839074.67349   -646684.92249  20407542.5234   20407545.6034
  19820952.606   -29966653.86049 -23316874.81749  19820953.1884   19820959.3614
  18821453.581   -19346612.67049 -15061368.16049  18821454.7914   18821460.0744
  18046702.688   -25821413.87049 -20108874.30249  18046704.3804   18046708.7764
 96  5 20 23 38 59.9910000  0  7 24 20 23  5 17 16  6
  21928464.975       32485.33559     24315.04549  21928466.2034   21928471.9744
  18633200.656   -13329589.52949  -9609146.84949  18633203.1004   18633207.7364
  21923660.918    -3466311.34849  -2668015.83349  21923663.0444   21923672.6564
  20413121.405     -809714.33649   -623806.80649  20413127.2854   20413133.6634
  19794161.604   -30107426.13249 -23426567.45349  19794164.7044   19794170.7084
  18814660.814   -19382296.44749 -15089173.69449  18814662.7664   18814669.5714
  18026328.294   -25928476.76949 -20192299.93149  18026330.9644   18026335.1484
 96  5 20 23 39 29.9910000  0  7 24 20 23  5 17 16  6
  21929825.192       39663.77449     29908.60849  21929831.2574   21929837.3934
  18631594.399   -13338033.04949  -9615726.24249  18631596.4144   18631601.6844
  21889162.636    -3647583.65149  -2809266.86749  21889169.9044   21889178.8534
  20418734.282     -780233.53149   -600834.82449  20418738.4044   20418743.6874
  19767404.787   -30248028.11449 -23536127.38349  19767408.3894   19767414.3174
  18807959.086   -19417516.80449 -15116618.15249  18807960.6324   18807965.6214
  18005992.634   -26035341.28049 -20275570.97949  18005995.2694   18005999.1704
 96  5 20 23 39 59.9910000  0  7 24 20 23  5 17 16  6
  21931192.051       46812.95049     35479.38749  21931192.0174   21931196.6574
  18630078.789   -13346005.96849  -9621938.92049  18630078.8304   18630084.8254
  21854686.126    -3828757.64749  -2950441.28349  21854694.1094   21854700.4784
  20424387.423     -750545.70849   -577701.55049  20424388.5424   20424392.8784
  19740696.406   -30388394.61749 -23645503.83449  19740697.9074   19740702.4754
  18801364.438   -19452179.59749 -15143628.15449  18801365.1344   18801370.3414
  17985713.562   -26141910.58349 -20358611.97749  17985715.9344   17985719.4904
 96  5 20 23 40 29.9910000  0  7 24 20 23  5 17 16  6
  21932540.066       53917.41149     41015.34149  21932544.2164   21932551.6134
  18628646.387   -13353535.03749  -9627805.74849  18628646.1104   18628652.0194
  21820232.313    -4009849.84949  -3091551.99049  21820232.3294   21820241.7054
  20430070.720     -720673.90249   -554424.90049  20430071.9614   20430078.8214
  19714024.953   -30528563.35849 -23754726.17449  19714025.8264   19714030.0924
  18794869.088   -19486313.76449 -15170226.21649  18794870.3494   18794875.5864
  17965490.254   -26248185.11049 -20441423.28849  17965492.3844   17965496.3264
 96  5 20 23 40 59.9910000  0  7 24 20 23  5 17 16  6
  21933888.701       60975.50749     46515.11649  21933886.2644   21933893.7414
  18627296.999   -13360625.17949  -9633330.54449  18627296.9364   18627302.1794
  21785791.118    -4190861.50749  -3232599.95949  21785789.0184   21785795.4554
  20435790.407     -690626.25549   -531011.23549  20435789.3644   20435796.3694
  19687389.564   -30668523.06249 -23863785.62549  19687391.0644   19687397.2944
  18788470.605   -19519932.04749 -15196422.28849  18788470.9284   18788478.9914
  17945325.174   -26354164.55649 -20524004.66149  17945325.3554   17945329.3204
 96  5 20 23 41 29.9910000  0  7 24 20 23  5 17 16  6
  21935246.814       68091.99349     52060.39349  21935241.9994   21935247.2044
  18626050.371   -13367174.65549  -9638434.06749  18626051.1624   18626055.8934
  21751367.167    -4371704.35049  -3373516.34449  21751373.4654   21751380.6024
  20441555.651     -660318.32049   -507394.74249  20441556.3864   20441563.7304
  19660814.624   -30808159.72349 -23972593.38249  19660817.5924   19660825.9224
  18782183.953   -19552935.05849 -15222138.88949  18782191.6464   18782196.1444
  17925230.034   -26459748.92049 -20606278.17849  17925232.3314   17925237.2994
 96  5 20 23 41 59.9910000  0  7 24 20 23  5 17 16  6
  21936605.451       75223.95049     57617.75749  21936598.6564   21936603.9384
  18624893.990   -13373241.67149  -9643161.65049  18624896.9664   18624901.5654
  21716986.189    -4552436.93049  -3514346.78249  21716983.2464   21716989.6104
  20447361.851     -629805.33649   -483618.47449  20447365.0074   20447369.8064
  19634298.323   -30947518.46449 -24081184.57549  19634299.9044   19634308.1274
  18776020.792   -19585375.81549 -15247417.40949  18776019.0784   18776023.5564
  17905207.707   -26564976.96649 -20688274.04749  17905208.6104   17905212.9624
 96  5 20 23 42 29.9910000  0  7 24 20 23  5 17 16  6
  21937933.848       82268.54849     63106.99949  21937940.1364   21937945.4344
  18623813.541   -13378925.10749  -9647590.32849  18623815.5634   18623820.8344
  21682589.076    -4733172.67249  -3655179.69849  21682590.7804   21682595.9404
  20453185.794     -599192.97549   -459764.78049  20453190.0644   20453194.1294
  19607817.279   -31086675.25649 -24189618.40449  19607818.9154   19607826.1954
  18769927.207   -19617364.04549 -15272343.32149  18769931.5584   18769936.0694
  17885228.469   -26669956.14849 -20770076.00349  17885231.3574   17885236.0134
 96  5 20 23 42 59.9910000  0  7 24 20 23  5 17 16  6
  21939274.666       89255.00649     68550.94749  21939269.5304   21939275.7424
  18622814.116   -13384173.58049  -9651680.06349  18622816.1544   18622822.1894
  21648203.841    -4913869.00949  -3795981.88849  21648204.3594   21648211.8674
  20459041.912     -568439.29949   -435800.97249  20459042.3934   20459046.8454
  19581386.837   -31225570.86549 -24297848.72549  19581388.6334   19581394.5804
  18763939.008   -19648852.49149 -15296879.75749  18763939.7654   18763944.0384
  17865301.938   -26774672.02349 -20851672.79249  17865304.4044   17865308.9864
 96  5 20 23 43 29.9910000  0  7 24 20 23  5 17 16  6
  21940573.530       96122.59149     73902.27349  21940576.3744   21940579.8764
  18621891.703   -13389024.71249  -9655460.18349  18621893.0254   18621898.4774
  21613818.170    -5094560.80649  -3936780.54349  21613819.2844   21613827.3834
  20464916.237     -537588.88749   -411761.79649  20464913.5724   20464919.2054
  19554996.904   -31364257.75249 -24405916.37949  19554996.9594   19555002.6634
  18758035.920   -19679877.52449 -15321055.09849  18758035.9184   18758041.3164
  17845416.969   -26879168.28449 -20933098.44649  17845420.2994   17845423.7054
 96  5 20 23 43 59.9910000  0  7 24 20 23  5 17 16  6
  21941873.835      102929.50249     79206.30449  21941873.4184   21941877.5464
  18621057.733   -13393411.25949  -9658878.28849  18621058.8624   18621063.3064
  21579445.465    -5275164.99149  -4077510.94549  21579451.0334   21579460.7984
  20470811.750     -506568.13949   -387589.87949  20470815.5894   20470822.1674
  19528652.241   -31502694.16249 -24513788.86749  19528653.6164   19528659.9454
  18752228.893   -19710370.91549 -15344816.15949  18752232.9014   18752238.4864
  17825588.659   -26983377.96449 -21014300.78249  17825589.8224   17825593.3944
 96  5 20 23 44 29.9910000  0  7 24 20 23  5 17 16  6
  21943143.610      109668.87949     84457.70549  21943154.4034   21943159.1434
  18620311.314   -13397326.68449  -9661929.27349  18620313.4254   18620318.2144
  21545094.136    -5455691.24949  -4218180.61849  21545097.6464   21545107.2354
  20476749.391     -475389.66149   -363295.08449  20476748.1974   20476755.1074
  19502350.938   -31640902.65149 -24621483.75749  19502353.1644   19502359.7224
  18746524.540   -19740338.98349 -15368167.90749  18746529.9204   18746535.3274
  17805807.648   -27087324.21849 -21095297.86249  17805809.8154   17805813.8254
 96  5 20 23 44 59.9910000  0  7 24 20 23  5 17 16  6
  21944422.552      116324.74949     89644.07049  21944422.3874   21944426.2834
  18619650.961   -13400809.38049  -9664643.08349  18619650.8644   18619654.9674
  21510756.334    -5636160.02649  -4358805.53149  21510754.7614   21510764.4414
  20482702.020     -444085.40049   -338902.26349  20482706.1264   20482711.8074
  19476085.282   -31778929.57249 -24729037.16149  19476087.5234   19476094.1474
  18740919.385   -19769810.57349 -15391132.78449  18740921.8744   18740927.6724
  17786072.305   -27191026.14249 -21176104.54449  17786075.6044   17786079.6244
 96  5 20 23 45 29.9910000  0  8 24 26 20 23  5 17 16  6
  21945680.255      122926.88449     94788.57749  21945677.7454   21945682.5104
  21794900.400    -9023627.55459  -6642353.86759  21794902.7504   21794907.1674
  18619069.482   -13403858.42949  -9667018.99349  18619070.9144   18619075.7984
  21476429.230    -5816540.61049  -4499361.72049  21476430.1154   21476438.7644
  20488687.515     -412645.07349   -314403.43149  20488688.9224   20488695.4664
  19449857.389   -31916764.45949 -24836440.92949  19449857.8984   19449864.7384
  18735412.146   -19798772.16649 -15413700.27449  18735410.2674   18735416.7504
  17766392.593   -27294448.66249 -21256693.51849  17766395.1444   17766398.5014
 96  5 20 23 45 59.9900000  0  8 24 26 20 23  5 17 16  6
  21946926.709      129506.23159     99915.40959  21946927.9354   21946935.4274
  21765358.362    -9178871.62749  -6763323.11449  21765358.9624   21765367.4424
  18618571.812   -13406478.18949  -9669060.38049  18618571.7854   18618577.3054
  21442123.984    -5996818.50949  -4639837.88449  21442124.0984   21442131.5884
  20494695.062     -381065.69249   -289796.22549  20494698.2364   20494703.7894
  19423661.137   -32054391.21749 -24943682.54149  19423668.1074   19423675.2794
  18729993.240   -19827228.46949 -15435874.02749  18729994.5874   18730001.4484
  17746767.033   -27397588.63249 -21337062.31949  17746768.1294   17746772.0774
 96  5 20 23 46 29.9900000  0  8 24 26 20 23  5 17 16  6
  21948168.691      136033.98849    105002.01749  21948171.0094   21948175.9794
  21735800.285    -9334166.45249  -6884331.94349  21735804.2484   21735815.8544
  18618140.389   -13408718.32949  -9670805.96449  18618144.9054   18618150.6284
  21407825.414    -6177046.53149  -4780275.18549  21407828.8914   21407835.0104
  20500723.389     -349394.25249   -265117.25949  20500724.9084   20500730.8254
  19397512.875   -32191835.78149 -25050782.14849  19397513.6674   19397520.3724
  18724661.264   -19855229.01049 -15457692.63849  18724666.9714   18724673.2724
  17727182.822   -27500494.94449 -21417249.04749  17727185.5164   17727189.7014
 96  5 20 23 46 59.9900000  0  8 24 26 20 23  5 17 16  6
  21949400.755      142521.59249    110057.26649  21949408.6664   21949412.7464
  21706246.594    -9489474.05349  -7005350.73949  21706249.8564   21706260.8714
  18617790.413   -13410569.87649  -9672248.76949  18617793.0144   18617797.6714
  21373551.969    -6357173.121 9  -4920633.43959                  21373557.4174
  20506773.612     -317606.70749   -240347.84249  20506774.3834   20506779.7124
  19371399.873   -32329059.37049 -25157709.58249  19371402.1554   19371406.7984
  18719435.006   -19882739.42749 -15479129.31249  18719432.3004   18719437.6434
  17707654.480   -27603122.41949 -21497218.50049  17707656.4274   17707660.4324
 96  5 20 23 47 29.9900000  0  8 24 26 20 23  5 17 16  6
  21950619.782      148890.73149    115020.11449  21950617.1174   21950623.5734
  21676681.061    -9644858.00749  -7126429.09449  21676681.1254   21676692.5714
  18617498.254   -13412092.44249  -9673435.20049  18617502.6264   18617507.9134
  21339284.380    -6537260.238 9
  20512828.542     -285773.73249   -215542.99749  20512832.9844   20512838.0734
  19345315.875   -32466120.46249 -25264510.37849  19345318.3904   19345324.1444
  18714277.852   -19909820.11149 -15500231.13949  18714279.7834   18714284.3504
  17688165.794   -27705540.01549 -21577024.41349  17688167.4144   17688171.0674
 96  5 20 23 47 59.9900000  0  8 24 26 20 23  5 17 16  6
  21951809.521      155193.49749    119931.29849  21951817.0484   21951823.3104
  21647115.198    -9800257.49649  -7247519.46549  21647114.1184   21647120.3774
  18617280.952   -13413238.19149  -9674328.01149  18617284.6304   18617289.6214
  21305028.790    -6717267.714 9
  20518902.303     -253841.91849   -190661.16049  20518908.8144   20518914.8764
  19319274.334   -32602969.16449 -25371145.68949  19319277.0414   19319284.1504
  18709216.413   -19936410.19049 -15520950.68349  18709219.4934   18709225.3114
  17668724.399   -27807702.35049 -21656631.41849  17668726.5564   17668730.0434
 96  5 20 23 48 29.9900000  0  8 24 26 20 23  5 17 16  6
  21952983.716      161349.09049    124727.80449  21952987.8504   21952996.0004
  21617526.217    -9955725.24549  -7368663.03849  21617526.6494   21617533.5764
  18617128.010   -13414074.29849  -9674979.54349  18617126.4004   18617131.2184
  21270776.223    -6897256.593 9
  20524990.466     -221876.55849   -165753.17649  20524991.7134   20524997.0574
  19293261.773   -32739674.71849 -25477669.43549  19293263.3244   19293270.8284
  18704244.827   -19962550.07449 -15541319.42049  18704245.2144   18704249.8804
  17649323.089   -27909646.13349 -21736068.12049  17649326.5584   17649330.6584
 96  5 20 23 48 59.9900000  0  8 24 26 20 23  5 17 16  6
  21954145.706      167446.04549    129478.60049  21954147.2214   21954155.2864
  21587952.135   -10111156.19849  -7489777.91849  21587951.6274   21587952.9824
  18617042.253   -13414507.89749  -9675317.44049  18617044.0824   18617049.6544
  21236546.288    -7077130.282 9  -5481638.50859                  21236552.7694
  20531097.093     -189790.17249   -140750.89749  20531096.3054   20531102.0284
  19267290.383   -32876151.39649 -25584014.85949  19267293.2484   19267300.0294
  18699373.226   -19988148.04049 -15561265.88449  18699373.8074   18699379.0234
  17629984.062   -28011274.88649 -21815259.36249  17629987.1654   17629991.3174
 96  5 20 23 49 29.9900000  0  8 24 26 20 23  5 17 16  6
  21955296.510      173466.76349    134170.03949  21955294.3244   21955301.4064
  21558376.046   -10266568.45849  -7610878.19149  21558376.1424   21558382.9964
  18617031.164   -13414561.54649  -9675359.27849  18617033.0374   18617039.3074
  21202332.145    -7256932.31559  -5621743.85049  21202332.4864   21202339.7334
  20537219.373     -157615.65149   -115679.96349  20537218.2014   20537225.6784
  19241357.421   -33012419.73449 -25690197.94849  19241362.0184   19241368.6784
  18694594.362   -20013246.24849 -15580822.94149  18694597.5624   18694602.7284
  17610699.861   -28112616.94249 -21894227.18849  17610702.2754   17610706.6634
 96  5 20 23 49 59.9900000  0  8 24 26 20 23  5 17 16  6
  21956421.533      179411.70949    138802.43049  21956424.9024   21956432.7694
  21528799.456   -10421945.73349  -7731951.27849  21528804.7014   21528816.0084
  18617097.173   -13414232.64049  -9675103.00749  18617095.9754   18617102.1374
  21168122.574    -7436665.96249  -5761795.91849  21168129.4394   21168136.3544
  20543356.325     -125345.61649    -90534.61449  20543359.5614   20543365.9734
  19215470.706   -33148468.27749 -25796209.75549  19215471.8704   19215479.3464
  18689914.271   -20037859.62149 -15600002.18749  18689914.5184   18689919.1354
  17591474.769   -28213654.43849 -21972957.70149  17591475.7514   17591479.7864
 96  5 20 23 50 29.9900000  0  7 26 20 23  5 17 16  6
  21499240.596   -10577262.29349  -7852977.05349  21499249.1734   21499260.3184
  18617232.185   -13413486.39849  -9674521.54649  18617238.0664   18617244.1904
  21133940.896    -7616307.79649  -5901776.39949  21133944.8854   21133951.4894
  20549523.175      -92958.68149    -65298.16849  20549524.7434   20549529.4684
  19189626.557   -33284268.22249 -25902027.86949  19189630.1544   19189636.8854
  18685323.103   -20061985.69749 -15618801.73349  18685322.3304   18685327.9894
  17572309.930   -28314351.22049 -22051422.72349  17572313.3464   17572318.1134
 96  5 20 23 50 59.9900000  0  7 26 20 23  5 17 16  6
  21469696.430   -10732592.95949  -7974013.85949  21469693.2074   21469698.1104
  18617449.161   -13412379.45349  -9673659.01749  18617449.2784   18617454.8424
  21099757.406    -7795927.82149  -6041739.92849  21099763.1744   21099771.1244
  20555695.784      -60517.46959    -40019.41949  20555697.2384   20555702.0844
  19163821.448   -33419883.54349 -26007702.11749  19163823.8394   19163830.9824
  18680807.466   -20085711.52149 -15637289.41349  18680807.7424   18680813.0374
  17553199.501   -28414791.67749 -22129688.01249  17553200.6644   17553204.3984
 96  5 20 23 51 29.9900000  0  7 26 20 23  5 17 16  6
  21440127.025   -10887953.65049  -8095073.98749  21440130.2104   21440136.4254
  18617726.784   -13410911.58849  -9672515.25949  18617728.7974   18617733.9144
  21065583.990    -7975537.24549  -6181695.24949  21065581.8014   21065594.0984
  20561883.767      -28015.68159    -14693.43559  20561881.8704   20561886.3424
  19138048.031   -33555328.11149 -26113243.29949  19138048.8734   19138056.4734
  18676368.504   -20109046.59149 -15655472.59449  18676367.5994   18676372.2924
  17534133.704   -28514972.95849 -22207751.33449  17534136.4994   17534141.3274
 96  5 20 23 51 59.9900000  0  7 26 20 23  5 17 16  6
  21410559.410   -11043338.02349  -8216152.53649  21410561.6394   21410567.8204
  18618076.743   -13409076.77949  -9671085.55849  18618078.0144   18618083.2294
  21031402.784    -8155127.05049  -6321635.27149  21031407.8724   21031419.6934
  20568072.997        4551.84859     10683.75849  20568078.3234   20568084.0414
  19112301.013   -33690615.76249 -26218662.24449  19112305.0014   19112310.8484
  18671998.567   -20131992.02149 -15673352.15549  18672001.4254   18672006.3724
  17515117.861   -28614901.28649 -22285617.56549  17515120.6124   17515125.6004
 96  5 20 23 52 29.9900000  0  7 26 20 23  5 17 16  6
  21380992.875   -11198708.14749  -8337220.04649  21380995.9584   21381001.8784
  18618500.113   -13406852.83349  -9669352.64849  18618501.9474   18618506.2714
  20997243.195    -8334649.84549  -6461523.05249  20997247.7284   20997256.3684
  20574290.208       37217.24949     36137.19649  20574294.7854   20574301.5794
  19086594.680   -33825723.26349 -26323940.76749  19086595.2204   19086599.8984
  18667716.737   -20154501.76949 -15690892.21449  18667718.7914   18667722.5514
  17496152.428   -28714561.09349 -22363274.56949  17496156.3574   17496160.6024
 96  5 20 23 52 59.9900000  0  7 26 20 23  5 17 16  6
  21351434.993   -11354034.72149  -8458253.63049  21351438.8144   21351444.9044
  18618997.153   -13404235.75949  -9667313.40549  18618999.8934   18619004.6774
  20963105.049    -8514067.49149  -6601328.90449  20963105.5114   20963114.4084
  20580530.231       69996.74249     61679.55649  20580533.1924   20580538.9944
  19060923.441   -33960623.75849 -26429057.98349  19060924.6284   19060929.7214
  18663522.746   -20176551.08849 -15708073.52449  18663521.5714   18663526.1704
  17477242.594   -28813941.74149 -22440714.02549  17477244.7794   17477248.7194
 96  5 20 23 53 29.9900000  0  7 26 20 23  5 17 16  6
  21321899.261   -11509244.32949  -8579196.03749  21321901.5344   21321909.2014
  18619580.118   -13401176.44649  -9664929.56049  18619581.4124   18619587.0214
  20928991.490    -8693304.66349  -6740994.13749  20928998.8244   20929007.4494
  20586803.137      102936.41549     87346.72049  20586802.2654   20586808.7084
  19035304.913   -34095248.35149 -26533960.20949  19035306.7314   19035311.3384
  18659422.600   -20198077.72549 -15724847.50749  18659426.1514   18659429.9994
  17458396.834   -28912981.25749 -22517887.66649  17458398.5034   17458402.6034
 96  5 20 23 53 59.9900000  0  7 26 20 23  5 17 16  6
  21292372.758   -11664427.33749  -8700117.75249  21292372.1824   21292378.0634
  18620227.466   -13397780.87949  -9662283.68449  18620227.8274   18620233.8034
  20894913.832    -8872436.37349  -6880577.15849  20894912.9164   20894921.1804
  20593085.579      135923.19649    113050.56449  20593079.5454   20593086.1474
  19009722.587   -34229684.91549 -26638715.90949  19009724.5864   19009730.0174
  18655413.863   -20219162.50849 -15741277.18149  18655413.9644   18655417.5274
  17439594.497   -29011783.51949 -22594876.42449  17439596.8164   17439601.0044
 96  5 20 23 54 29.9900000  0  7 26 20 23  5 17 16  6
  21262858.344   -11819497.35349  -8820951.46449  21262860.8374   21262869.2474
  18620951.548   -13393961.38049  -9659307.48949  18620953.7554   18620959.9964
  20860865.582    -9051339.45649  -7019982.05549  20860867.7024   20860875.8374
  20599387.038      169052.38249    138865.39749  20599385.2494   20599389.8374
  18984195.826   -34363822.21949 -26743238.44349  18984197.6264   18984203.2174
  18651505.599   -20239697.76949 -15757278.67849  18651505.8334   18651510.5494
  17420862.434   -29110229.04649 -22671587.22049  17420863.5644   17420867.7554
 96  5 20 23 54 59.9900000  0  7 26 20 23  5 17 16  6
  21233353.489   -11974552.80249  -8941773.75849  21233356.0374   21233364.3714
  18621744.416   -13389797.93349  -9656063.28249  18621746.0324   18621752.0794
  20826839.632    -9230111.43549  -7159284.74449  20826848.0604   20826855.8734
  20605695.472      202224.90949    164713.97949  20605696.8714   20605702.9774
  18958712.307   -34497751.49349 -26847598.88349  18958713.0704   18958716.2164
  18647681.724   -20259775.99449 -15772924.04549  18647685.3734   18647688.9314
  17402183.224   -29208391.85549 -22748077.71249  17402184.0154   17402187.7754
 96  5 20 23 55 29.9900000  0  7 26 20 23  5 17 16  6
  21203841.088   -12129652.24949  -9062630.38049  21203841.2814   21203847.7054
  18622588.563   -13385346.26449  -9652594.48149  18622592.6294   18622598.6134
  20792843.090    -9408820.29449  -7298538.30049  20792840.2644   20792849.6814
  20612000.415      235373.70449    190544.07349  20612003.7254   20612010.2834
  18933248.841   -34631552.35949 -26951859.26049  18933251.3534   18933255.4004
  18643938.492   -20279454.75149 -15788258.14249  18643940.9894   18643943.7194
  17383544.494   -29306327.32549 -22824391.05549  17383546.9924   17383550.9414
 96  5 20 23 55 59.9900000  0  7 26 20 23  5 17 16  6
  21174309.268   -12284825.71949  -9183544.67049  21174312.6114   21174320.0984
  18623484.883   -13380652.99249  -9648937.42349  18623486.0234   18623491.7534
  20758836.614    -9587516.28249  -7437781.78549  20758835.1114   20758844.9904
  20618300.882      268467.26149    216331.06949  20618302.7694   20618308.5564
  18907807.417   -34765261.61149 -27056048.23849  18907808.1614   18907812.3424
  18640261.675   -20298773.22249 -15803311.49049  18640263.8244   18640268.4314
  17364945.701   -29404060.75249 -22900546.96649  17364949.1204   17364952.9164
 96  5 20 23 56 29.9890000  0  7 26 20 23  5 17 16  6
  21144787.162   -12439935.94049  -9304409.64649  21144793.3894   21144799.6624
  18624445.742   -13375603.97849  -9645003.16849  18624447.1234   18624452.7184
  20724850.999    -9766089.99049  -7576930.02149  20724853.5524   20724863.3064
  20624612.404      301624.89949    242168.04149  20624612.6984   20624618.0524
  18882401.706   -34898756.12449 -27160069.88749  18882404.2354   18882409.7644
  18636674.521   -20317630.98449 -15818005.84449  18636674.6084   18636678.8784
  17346409.904   -29501469.72749 -22976450.05949  17346412.7154   17346416.5454
 96  5 20 23 56 59.9890000  0  7 26 20 23  5 17 16  6
  21115296.421   -12594934.87949  -9425187.95649  21115300.3614   21115304.3564
  18625478.283   -13370170.30449  -9640769.17049  18625480.4724   18625487.3784
  20690889.648    -9944538.22949  -7715980.49549  20690895.1554   20690904.9234
  20630939.267      334889.95849    268088.71249  20630942.6854   20630947.2484
  18857042.851   -35032018.49349 -27263910.66849  18857044.5914   18857050.8554
  18633177.330   -20336004.20149 -15832322.66049  18633178.5164   18633182.9144
  17327939.072   -29598540.18649 -23052089.37249  17327940.5824   17327944.3284
 96  5 20 23 57 29.9890000  0  7 26 20 23  5 17 16  6
  21085838.440   -12749764.54449  -9545834.32049  21085839.9104   21085844.8054
  18626589.459   -13364332.25449  -9636220.07949  18626591.6144   18626598.4834
  20656969.151   -10122807.72949  -7854891.69049  20656971.4104   20656983.1234
  20637301.038      368304.10049    294125.57049  20637301.8444   20637305.6694
  18831738.947   -35165000.86549 -27367533.25349  18831739.7914   18831743.4614
  18629779.987   -20353870.94049 -15846244.80649  18629779.0594   18629783.1874
  17309537.942   -29695234.90949 -23127435.90449  17309539.9864   17309543.8144
 96  5 20 23 57 59.9890000  0  7 26 20 23  5 17 16  6
  21056395.524   -12904476.17649  -9666388.71349  21056397.1284   21056402.8264
  18627769.373   -13358136.94649  -9631392.60049  18627770.8634   18627777.6654
  20623075.014   -10300943.61149  -7993698.74549  20623074.6794   20623085.2414
  20643684.484      401831.12049    320250.33649  20643680.7504   20643685.9524
  18806475.324   -35297741.65449 -27470967.59649  18806479.0314   18806484.2564
  18626463.582   -20371281.45949 -15859811.46349  18626465.9674   18626470.4464
  17291201.873   -29791595.81249 -23202522.31749  17291202.9534   17291207.5374
 96  5 20 23 58 29.9890000  0  7 26 20 23  5 17 16  6
  21026982.601   -13059039.60949  -9786827.62049  21026984.2374   21026991.2254
  18629026.180   -13351527.97149  -9626242.80249  18629028.7554   18629035.2794
  20589213.485   -10478891.72049  -8132359.51849  20589212.2434   20589221.2154
  20650090.778      435522.55649    346503.25149  20650091.6324   20650095.6864
  18781269.848   -35430208.23449 -27574188.28049  18781271.7134   18781277.1554
  18623247.460   -20388191.29749 -15872987.97749  18623247.4434   18623252.8674
  17272934.737   -29887582.17049 -23277316.88349  17272937.5224   17272941.9874
 96  5 20 23 58 59.9890000  0  7 26 20 23  5 17 16  6
  20997598.085   -13213468.06349  -9907161.39149  20997598.4054   20997606.3064
  18630364.707   -13344499.79849  -9620766.35749  18630366.2584   18630372.2024
  20555380.403   -10656653.67149  -8270875.21449  20555384.2264   20555394.3984
  20656527.597      469377.20449    372883.34049  20656532.2554   20656537.8994
  18756116.803   -35562392.59749 -27677189.04949  18756117.7944   18756122.6594
  18620121.056   -20404599.40649 -15885773.51949  18620125.2864   18620130.5524
  17254744.083   -29983178.35049 -23351807.41649  17254746.2224   17254750.5604
 96  5 20 23 59 29.9890000  0  7 26 20 23  5 17 16  6
  20968221.064   -13367825.21249 -10027439.52249  20968223.2264   20968230.3814
  18631774.351   -13337092.99249  -9614994.85549  18631776.2914   18631780.9934
  20521569.023   -10834279.49649  -8409284.88449  20521581.9664   20521592.2184
  20662990.000      503315.83649    399328.92949  20662990.3414   20662996.3254
  18731009.641   -35694333.98249 -27780000.50349  18731010.0914   18731015.9654
  18617089.851   -20420550.56249 -15898202.99849  18617091.2934   18617094.3824
  17236618.667   -30078423.42149 -23426024.34549  17236621.5074   17236626.3234
